Time,TemperatureF,DewpointF,PressureIn,WindDirection,WindDirectionDegrees,WindSpeedMPH,WindSpeedGustMPH,Humidity,HourlyPrecipIn,Conditions,Clouds,dailyrainin,SolarRadiationWatts/m^2,SoftwareType,DateUTC
2013-09-24 00:01:00,47.8,43.2,30.16,NNW,329,0.0,1.0,84,0.00,,,0.00,0,Wunderground v.1.15,2013-09-24 04:01:00,
2013-09-24 00:02:00,47.7,43.1,30.17,NNW,329,0.0,1.0,84,0.00,,,0.00,0,Wunderground v.1.15,2013-09-24 04:02:00,
2013-09-24 00:06:00,47.7,42.8,30.17,NNW,329,0.0,1.0,83,0.00,,,0.00,0,Wunderground v.1.15,2013-09-24 04:06:00,
2013-09-24 00:08:00,47.6,43.0,30.17,NNW,329,0.0,1.0,84,0.00,,,0.00,0,Wunderground v.1.15,2013-09-24 04:08:00,
2013-09-24 00:10:00,47.6,43.0,30.17,NNW,329,1.0,1.0,84,0.00,,,0.00,0,Wunderground v.1.15,2013-09-24 04:10:00,
2013-09-24 00:12:00,47.6,43.0,30.17,NNW,329,1.0,1.0,84,0.00,,,0.00,0,Wunderground v.1.15,2013-09-24 04:12:00,
2013-09-24 00:13:00,47.6,43.0,30.17,NNW,329,1.0,2.0,84,0.00,,,0.00,0,Wunderground v.1.15,2013-09-24 04:13:00,
2013-09-24 00:14:00,47.6,43.0,30.17,NNW,329,1.0,2.0,84,0.00,,,0.00,0,Wunderground v.1.15,2013-09-24 04:14:00,
2013-09-24 00:19:00,47.5,42.9,30.17,NNW,329,1.0,2.0,84,0.00,,,0.00,0,Wunderground v.1.15,2013-09-24 04:19:00,
2013-09-24 00:22:00,47.5,43.2,30.17,NNW,329,1.0,1.0,85,0.00,,,0.00,0,Wunderground v.1.15,2013-09-24 04:22:00,
2013-09-24 00:25:00,47.5,43.2,30.17,NNW,329,0.0,1.0,85,0.00,,,0.00,0,Wunderground v.1.15,2013-09-24 04:25:00,
2013-09-24 00:28:00,47.3,43.3,30.17,ESE,123,0.0,2.0,86,0.00,,,0.00,0,Wunderground v.1.15,2013-09-24 04:28:00,
2013-09-24 00:30:00,47.2,43.2,30.17,ESE,123,0.0,0.0,86,0.00,,,0.00,0,Wunderground v.1.15,2013-09-24 04:30:00,
2013-09-24 00:33:00,47.0,43.0,30.17,SE,132,1.0,1.0,86,0.00,,,0.00,0,Wunderground v.1.15,2013-09-24 04:33:00,
2013-09-24 00:35:00,46.9,43.2,30.17,SE,132,1.0,1.0,87,0.00,,,0.00,0,Wunderground v.1.15,2013-09-24 04:35:00,
2013-09-24 00:36:00,46.8,43.1,30.17,SE,132,1.0,1.0,87,0.00,,,0.00,0,Wunderground v.1.15,2013-09-24 04:36:00,
2013-09-24 00:38:00,46.8,43.1,30.17,SE,132,1.0,1.0,87,0.00,,,0.00,0,Wunderground v.1.15,2013-09-24 04:38:00,
2013-09-24 00:39:00,46.7,43.3,30.17,SE,132,1.0,1.0,88,0.00,,,0.00,0,Wunderground v.1.15,2013-09-24 04:39:00,
2013-09-24 00:42:00,46.6,43.2,30.17,SE,132,0.0,1.0,88,0.00,,,0.00,0,Wunderground v.1.15,2013-09-24 04:42:00,
2013-09-24 00:43:00,46.6,43.2,30.17,SE,132,0.0,1.0,88,0.00,,,0.00,0,Wunderground v.1.15,2013-09-24 04:43:00,
2013-09-24 00:45:00,46.6,43.2,30.17,SE,132,0.0,1.0,88,0.00,,,0.00,0,Wunderground v.1.15,2013-09-24 04:45:00,
2013-09-24 00:49:00,46.5,43.4,30.17,SE,132,0.0,1.0,89,0.00,,,0.00,0,Wunderground v.1.15,2013-09-24 04:49:00,
2013-09-24 00:50:00,46.5,43.4,30.17,SE,132,0.0,0.0,89,0.00,,,0.00,0,Wunderground v.1.15,2013-09-24 04:50:00,
2013-09-24 00:52:00,46.5,43.4,30.17,SE,132,0.0,0.0,89,0.00,,,0.00,0,Wunderground v.1.15,2013-09-24 04:52:00,
2013-09-24 00:54:00,46.5,43.7,30.17,SE,132,0.0,0.0,90,0.00,,,0.00,0,Wunderground v.1.15,2013-09-24 04:54:00,
2013-09-24 00:56:00,46.4,43.6,30.18,SE,132,0.0,0.0,90,0.00,,,0.00,0,Wunderground v.1.15,2013-09-24 04:56:00,
2013-09-24 00:57:00,46.4,43.6,30.18,SE,132,0.0,1.0,90,0.00,,,0.00,0,Wunderground v.1.15,2013-09-24 04:57:00,
2013-09-24 01:00:00,46.3,43.5,30.18,SE,132,0.0,0.0,90,0.00,,,0.00,0,Wunderground v.1.15,2013-09-24 05:00:00,
2013-09-24 01:03:00,46.2,43.4,30.18,ESE,123,0.0,1.0,90,0.00,,,0.00,0,Wunderground v.1.15,2013-09-24 05:03:00,
2013-09-24 01:04:00,46.1,43.3,30.18,ESE,123,0.0,1.0,90,0.00,,,0.00,0,Wunderground v.1.15,2013-09-24 05:04:00,
2013-09-24 01:05:00,46.1,43.0,30.18,ESE,123,0.0,1.0,89,0.00,,,0.00,0,Wunderground v.1.15,2013-09-24 05:05:00,
2013-09-24 01:07:00,46.0,42.9,30.18,ESE,123,0.0,1.0,89,0.00,,,0.00,0,Wunderground v.1.15,2013-09-24 05:07:00,
2013-09-24 01:08:00,45.9,42.8,30.18,ESE,123,0.0,1.0,89,0.00,,,0.00,0,Wunderground v.1.15,2013-09-24 05:08:00,
2013-09-24 01:14:00,45.8,42.7,30.18,ESE,123,0.0,0.0,89,0.00,,,0.00,0,Wunderground v.1.15,2013-09-24 05:14:00,
2013-09-24 01:16:00,45.8,42.7,30.18,ESE,123,0.0,0.0,89,0.00,,,0.00,0,Wunderground v.1.15,2013-09-24 05:16:00,
2013-09-24 01:17:00,45.8,42.7,30.18,ESE,123,0.0,0.0,89,0.00,,,0.00,0,Wunderground v.1.15,2013-09-24 05:17:00,
2013-09-24 01:22:00,45.7,42.9,30.18,ESE,123,0.0,1.0,90,0.00,,,0.00,0,Wunderground v.1.15,2013-09-24 05:22:00,
2013-09-24 01:24:00,45.7,42.9,30.18,ESE,123,0.0,1.0,90,0.00,,,0.00,0,Wunderground v.1.15,2013-09-24 05:24:00,
2013-09-24 01:26:00,45.7,42.9,30.18,ESE,123,0.0,1.0,90,0.00,,,0.00,0,Wunderground v.1.15,2013-09-24 05:26:00,
2013-09-24 01:27:00,45.7,42.9,30.18,ESE,123,0.0,1.0,90,0.00,,,0.00,0,Wunderground v.1.15,2013-09-24 05:27:00,
2013-09-24 01:32:00,45.6,42.8,30.18,ESE,123,0.0,0.0,90,0.00,,,0.00,0,Wunderground v.1.15,2013-09-24 05:32:00,
2013-09-24 01:33:00,45.5,42.7,30.18,ESE,123,0.0,0.0,90,0.00,,,0.00,0,Wunderground v.1.15,2013-09-24 05:33:00,
2013-09-24 01:34:00,45.5,42.7,30.18,ESE,123,0.0,0.0,90,0.00,,,0.00,0,Wunderground v.1.15,2013-09-24 05:34:00,
2013-09-24 01:39:00,45.3,42.5,30.18,ESE,123,0.0,1.0,90,0.00,,,0.00,0,Wunderground v.1.15,2013-09-24 05:39:00,
2013-09-24 01:40:00,45.3,42.5,30.18,ESE,123,0.0,0.0,90,0.00,,,0.00,0,Wunderground v.1.15,2013-09-24 05:40:00,
2013-09-24 01:44:00,45.1,42.3,30.18,ESE,123,0.0,0.0,90,0.00,,,0.00,0,Wunderground v.1.15,2013-09-24 05:44:00,
2013-09-24 01:45:00,45.1,42.3,30.18,ESE,123,0.0,0.0,90,0.00,,,0.00,0,Wunderground v.1.15,2013-09-24 05:45:00,
2013-09-24 01:46:00,45.0,42.2,30.18,ESE,123,0.0,0.0,90,0.00,,,0.00,0,Wunderground v.1.15,2013-09-24 05:46:00,
2013-09-24 01:49:00,44.9,42.1,30.18,ESE,123,0.0,0.0,90,0.00,,,0.00,0,Wunderground v.1.15,2013-09-24 05:49:00,
2013-09-24 01:51:00,44.8,42.0,30.18,ESE,123,0.0,0.0,90,0.00,,,0.00,0,Wunderground v.1.15,2013-09-24 05:51:00,
2013-09-24 01:53:00,44.7,41.9,30.18,NW,321,0.0,1.0,90,0.00,,,0.00,0,Wunderground v.1.15,2013-09-24 05:53:00,
2013-09-24 01:55:00,44.6,42.1,30.18,NW,321,0.0,1.0,91,0.00,,,0.00,0,Wunderground v.1.15,2013-09-24 05:55:00,
2013-09-24 01:57:00,44.5,42.0,30.18,NW,321,0.0,1.0,91,0.00,,,0.00,0,Wunderground v.1.15,2013-09-24 05:57:00,
2013-09-24 02:02:00,44.5,42.0,30.18,NNW,348,1.0,1.0,91,0.00,,,0.00,0,Wunderground v.1.15,2013-09-24 06:02:00,
2013-09-24 02:03:00,44.5,42.0,30.18,NNW,327,1.0,1.0,91,0.00,,,0.00,0,Wunderground v.1.15,2013-09-24 06:03:00,
2013-09-24 02:05:00,44.5,42.0,30.18,NNW,327,0.0,1.0,91,0.00,,,0.00,0,Wunderground v.1.15,2013-09-24 06:05:00,
2013-09-24 02:08:00,44.4,41.9,30.18,NNW,327,0.0,1.0,91,0.00,,,0.00,0,Wunderground v.1.15,2013-09-24 06:08:00,
2013-09-24 02:10:00,44.4,41.9,30.18,NNW,327,0.0,0.0,91,0.00,,,0.00,0,Wunderground v.1.15,2013-09-24 06:10:00,
2013-09-24 02:12:00,44.4,41.9,30.18,NNW,327,0.0,0.0,91,0.00,,,0.00,0,Wunderground v.1.15,2013-09-24 06:12:00,
2013-09-24 02:13:00,44.4,41.9,30.18,NNW,327,0.0,0.0,91,0.00,,,0.00,0,Wunderground v.1.15,2013-09-24 06:13:00,
2013-09-24 02:15:00,44.4,41.9,30.18,NNW,327,0.0,0.0,91,0.00,,,0.00,0,Wunderground v.1.15,2013-09-24 06:15:00,
2013-09-24 02:17:00,44.4,41.9,30.18,NNW,327,0.0,0.0,91,0.00,,,0.00,0,Wunderground v.1.15,2013-09-24 06:17:00,
2013-09-24 02:18:00,44.4,41.9,30.18,NNW,327,0.0,0.0,91,0.00,,,0.00,0,Wunderground v.1.15,2013-09-24 06:18:00,
2013-09-24 02:21:00,44.3,41.8,30.18,NNW,327,0.0,0.0,91,0.00,,,0.00,0,Wunderground v.1.15,2013-09-24 06:21:00,
2013-09-24 02:24:00,44.2,41.7,30.18,West,266,0.0,1.0,91,0.00,,,0.00,0,Wunderground v.1.15,2013-09-24 06:24:00,
2013-09-24 02:26:00,44.2,41.7,30.18,West,266,0.0,1.0,91,0.00,,,0.00,0,Wunderground v.1.15,2013-09-24 06:26:00,
2013-09-24 02:30:00,44.0,41.5,30.18,WSW,242,1.0,1.0,91,0.00,,,0.00,0,Wunderground v.1.15,2013-09-24 06:30:00,
2013-09-24 02:31:00,43.9,41.4,30.18,WSW,242,1.0,1.0,91,0.00,,,0.00,0,Wunderground v.1.15,2013-09-24 06:31:00,
2013-09-24 02:33:00,43.9,41.4,30.18,South,186,1.0,1.0,91,0.00,,,0.00,0,Wunderground v.1.15,2013-09-24 06:33:00,
2013-09-24 02:37:00,43.8,41.6,30.18,South,186,1.0,1.0,92,0.00,,,0.00,0,Wunderground v.1.15,2013-09-24 06:37:00,
2013-09-24 02:38:00,43.8,41.6,30.18,South,186,0.0,1.0,92,0.00,,,0.00,0,Wunderground v.1.15,2013-09-24 06:38:00,
2013-09-24 02:43:00,43.7,41.5,30.18,South,186,0.0,1.0,92,0.00,,,0.00,0,Wunderground v.1.15,2013-09-24 06:43:00,
2013-09-24 02:46:00,43.7,41.5,30.18,South,186,0.0,1.0,92,0.00,,,0.00,0,Wunderground v.1.15,2013-09-24 06:46:00,
2013-09-24 02:47:00,43.7,41.5,30.18,South,186,0.0,1.0,92,0.00,,,0.00,0,Wunderground v.1.15,2013-09-24 06:47:00,
2013-09-24 02:48:00,43.7,41.5,30.18,South,186,0.0,1.0,92,0.00,,,0.00,0,Wunderground v.1.15,2013-09-24 06:48:00,
2013-09-24 02:49:00,43.7,41.5,30.18,SW,224,0.0,1.0,92,0.00,,,0.00,0,Wunderground v.1.15,2013-09-24 06:49:00,
2013-09-24 02:54:00,43.7,41.5,30.18,SW,232,0.0,0.0,92,0.00,,,0.00,0,Wunderground v.1.15,2013-09-24 06:54:00,
2013-09-24 02:55:00,43.7,41.5,30.18,SW,232,0.0,0.0,92,0.00,,,0.00,0,Wunderground v.1.15,2013-09-24 06:55:00,
2013-09-24 02:56:00,43.7,41.5,30.18,SW,232,0.0,0.0,92,0.00,,,0.00,0,Wunderground v.1.15,2013-09-24 06:56:00,
2013-09-24 02:58:00,43.6,41.4,30.18,SW,232,0.0,0.0,92,0.00,,,0.00,0,Wunderground v.1.15,2013-09-24 06:58:00,
2013-09-24 03:02:00,43.6,41.4,30.18,SW,232,0.0,0.0,92,0.00,,,0.00,0,Wunderground v.1.15,2013-09-24 07:02:00,
2013-09-24 03:03:00,43.5,41.3,30.18,SW,232,0.0,1.0,92,0.00,,,0.00,0,Wunderground v.1.15,2013-09-24 07:03:00,
2013-09-24 03:05:00,43.4,41.2,30.17,SW,232,0.0,1.0,92,0.00,,,0.00,0,Wunderground v.1.15,2013-09-24 07:05:00,
2013-09-24 03:07:00,43.4,41.2,30.18,SW,232,0.0,1.0,92,0.00,,,0.00,0,Wunderground v.1.15,2013-09-24 07:07:00,
2013-09-24 03:09:00,43.4,41.2,30.18,SW,232,0.0,1.0,92,0.00,,,0.00,0,Wunderground v.1.15,2013-09-24 07:09:00,
2013-09-24 03:10:00,43.4,41.2,30.18,SW,232,0.0,0.0,92,0.00,,,0.00,0,Wunderground v.1.15,2013-09-24 07:10:00,
2013-09-24 03:11:00,43.4,41.2,30.18,SW,232,0.0,1.0,92,0.00,,,0.00,0,Wunderground v.1.15,2013-09-24 07:11:00,
2013-09-24 03:15:00,43.3,41.1,30.18,SW,232,0.0,1.0,92,0.00,,,0.00,0,Wunderground v.1.15,2013-09-24 07:15:00,
2013-09-24 03:17:00,43.3,41.1,30.18,SW,232,0.0,1.0,92,0.00,,,0.00,0,Wunderground v.1.15,2013-09-24 07:17:00,
2013-09-24 03:19:00,43.3,41.1,30.18,SW,232,0.0,1.0,92,0.00,,,0.00,0,Wunderground v.1.15,2013-09-24 07:19:00,
2013-09-24 03:20:00,43.3,41.1,30.18,SW,232,0.0,1.0,92,0.00,,,0.00,0,Wunderground v.1.15,2013-09-24 07:20:00,
2013-09-24 03:23:00,43.2,41.0,30.18,South,178,0.0,1.0,92,0.00,,,0.00,0,Wunderground v.1.15,2013-09-24 07:23:00,
2013-09-24 03:25:00,43.1,40.9,30.18,South,178,1.0,1.0,92,0.00,,,0.00,0,Wunderground v.1.15,2013-09-24 07:25:00,
2013-09-24 03:26:00,43.0,40.8,30.18,South,178,1.0,2.0,92,0.00,,,0.00,0,Wunderground v.1.15,2013-09-24 07:26:00,
2013-09-24 03:28:00,42.9,41.0,30.18,South,178,1.0,2.0,93,0.00,,,0.00,0,Wunderground v.1.15,2013-09-24 07:28:00,
2013-09-24 03:31:00,42.8,40.9,30.18,South,178,1.0,2.0,93,0.00,,,0.00,0,Wunderground v.1.15,2013-09-24 07:31:00,
2013-09-24 03:33:00,42.8,40.9,30.18,South,178,1.0,2.0,93,0.00,,,0.00,0,Wunderground v.1.15,2013-09-24 07:33:00,
2013-09-24 03:35:00,42.7,40.8,30.18,South,178,1.0,2.0,93,0.00,,,0.00,0,Wunderground v.1.15,2013-09-24 07:35:00,
2013-09-24 03:37:00,42.7,40.8,30.18,South,178,1.0,2.0,93,0.00,,,0.00,0,Wunderground v.1.15,2013-09-24 07:37:00,
2013-09-24 03:39:00,42.7,40.8,30.18,South,178,1.0,2.0,93,0.00,,,0.00,0,Wunderground v.1.15,2013-09-24 07:39:00,
2013-09-24 03:41:00,42.8,41.2,30.18,South,178,1.0,1.0,94,0.00,,,0.00,0,Wunderground v.1.15,2013-09-24 07:41:00,
2013-09-24 03:42:00,42.8,41.2,30.18,South,178,1.0,1.0,94,0.00,,,0.00,0,Wunderground v.1.15,2013-09-24 07:42:00,
2013-09-24 03:45:00,42.8,41.2,30.18,South,178,0.0,1.0,94,0.00,,,0.00,0,Wunderground v.1.15,2013-09-24 07:45:00,
2013-09-24 03:46:00,42.7,41.1,30.18,South,178,0.0,1.0,94,0.00,,,0.00,0,Wunderground v.1.15,2013-09-24 07:46:00,
2013-09-24 03:49:00,42.7,41.1,30.18,South,178,0.0,1.0,94,0.00,,,0.00,0,Wunderground v.1.15,2013-09-24 07:49:00,
2013-09-24 03:50:00,42.7,41.1,30.18,South,178,0.0,0.0,94,0.00,,,0.00,0,Wunderground v.1.15,2013-09-24 07:50:00,
2013-09-24 03:51:00,42.7,41.1,30.18,South,178,0.0,0.0,94,0.00,,,0.00,0,Wunderground v.1.15,2013-09-24 07:51:00,
2013-09-24 03:55:00,42.5,40.9,30.17,South,178,0.0,0.0,94,0.00,,,0.00,0,Wunderground v.1.15,2013-09-24 07:55:00,
2013-09-24 03:56:00,42.5,40.9,30.18,South,178,0.0,0.0,94,0.00,,,0.00,0,Wunderground v.1.15,2013-09-24 07:56:00,
2013-09-24 03:57:00,42.4,40.8,30.18,South,178,0.0,0.0,94,0.00,,,0.00,0,Wunderground v.1.15,2013-09-24 07:57:00,
2013-09-24 03:58:00,42.4,40.8,30.18,South,178,0.0,0.0,94,0.00,,,0.00,0,Wunderground v.1.15,2013-09-24 07:58:00,
2013-09-24 03:59:00,42.3,40.7,30.18,South,178,0.0,0.0,94,0.00,,,0.00,0,Wunderground v.1.15,2013-09-24 07:59:00,
2013-09-24 04:04:00,42.1,40.5,30.18,South,178,0.0,0.0,94,0.00,,,0.00,0,Wunderground v.1.15,2013-09-24 08:04:00,
2013-09-24 04:07:00,42.0,40.7,30.18,South,178,0.0,0.0,95,0.00,,,0.00,0,Wunderground v.1.15,2013-09-24 08:07:00,
2013-09-24 04:10:00,41.9,40.6,30.17,South,178,0.0,0.0,95,0.00,,,0.00,0,Wunderground v.1.15,2013-09-24 08:10:00,
2013-09-24 04:11:00,41.9,40.6,30.17,South,178,0.0,0.0,95,0.00,,,0.00,0,Wunderground v.1.15,2013-09-24 08:11:00,
2013-09-24 04:14:00,41.9,40.6,30.17,South,178,0.0,0.0,95,0.00,,,0.00,0,Wunderground v.1.15,2013-09-24 08:14:00,
2013-09-24 04:15:00,41.9,40.6,30.18,South,178,0.0,0.0,95,0.00,,,0.00,0,Wunderground v.1.15,2013-09-24 08:15:00,
2013-09-24 04:16:00,41.9,40.6,30.17,South,178,0.0,0.0,95,0.00,,,0.00,0,Wunderground v.1.15,2013-09-24 08:16:00,
2013-09-24 04:20:00,41.9,40.6,30.17,South,178,0.0,0.0,95,0.00,,,0.00,0,Wunderground v.1.15,2013-09-24 08:20:00,
2013-09-24 04:21:00,41.9,40.6,30.17,South,178,0.0,0.0,95,0.00,,,0.00,0,Wunderground v.1.15,2013-09-24 08:21:00,
2013-09-24 04:22:00,41.9,40.6,30.18,South,178,0.0,0.0,95,0.00,,,0.00,0,Wunderground v.1.15,2013-09-24 08:22:00,
2013-09-24 04:24:00,41.9,40.6,30.17,WSW,238,0.0,0.0,95,0.00,,,0.00,0,Wunderground v.1.15,2013-09-24 08:24:00,
2013-09-24 04:28:00,42.1,41.0,30.18,WSW,256,0.0,0.0,96,0.00,,,0.00,0,Wunderground v.1.15,2013-09-24 08:28:00,
2013-09-24 04:30:00,42.1,41.0,30.18,WNW,296,0.0,0.0,96,0.00,,,0.00,0,Wunderground v.1.15,2013-09-24 08:30:00,
2013-09-24 04:31:00,42.1,41.0,30.17,WNW,296,0.0,0.0,96,0.00,,,0.00,0,Wunderground v.1.15,2013-09-24 08:31:00,
2013-09-24 04:36:00,42.2,41.1,30.18,WNW,296,0.0,0.0,96,0.00,,,0.00,0,Wunderground v.1.15,2013-09-24 08:36:00,
2013-09-24 04:37:00,42.1,41.0,30.17,WNW,296,0.0,0.0,96,0.00,,,0.00,0,Wunderground v.1.15,2013-09-24 08:37:00,
2013-09-24 04:38:00,42.1,41.0,30.17,WNW,296,0.0,0.0,96,0.00,,,0.00,0,Wunderground v.1.15,2013-09-24 08:38:00,
2013-09-24 04:39:00,42.1,41.0,30.18,WNW,296,0.0,0.0,96,0.00,,,0.00,0,Wunderground v.1.15,2013-09-24 08:39:00,
2013-09-24 04:43:00,42.2,41.1,30.18,WNW,296,0.0,0.0,96,0.00,,,0.00,0,Wunderground v.1.15,2013-09-24 08:43:00,
2013-09-24 04:44:00,42.1,41.0,30.18,WNW,296,0.0,0.0,96,0.00,,,0.00,0,Wunderground v.1.15,2013-09-24 08:44:00,
2013-09-24 04:45:00,42.2,41.1,30.18,WNW,296,0.0,0.0,96,0.00,,,0.00,0,Wunderground v.1.15,2013-09-24 08:45:00,
2013-09-24 04:50:00,42.2,41.1,30.18,WNW,296,0.0,0.0,96,0.00,,,0.00,0,Wunderground v.1.15,2013-09-24 08:50:00,
2013-09-24 04:51:00,42.2,41.1,30.18,WNW,296,0.0,0.0,96,0.00,,,0.00,0,Wunderground v.1.15,2013-09-24 08:51:00,
2013-09-24 04:52:00,42.2,41.1,30.18,WNW,296,0.0,0.0,96,0.00,,,0.00,0,Wunderground v.1.15,2013-09-24 08:52:00,
2013-09-24 04:54:00,42.3,41.2,30.18,WNW,296,0.0,0.0,96,0.00,,,0.00,0,Wunderground v.1.15,2013-09-24 08:54:00,
2013-09-24 04:57:00,42.3,41.2,30.18,WNW,296,0.0,0.0,96,0.00,,,0.00,0,Wunderground v.1.15,2013-09-24 08:57:00,
2013-09-24 04:58:00,42.3,41.2,30.18,WNW,296,0.0,0.0,96,0.00,,,0.00,0,Wunderground v.1.15,2013-09-24 08:58:00,
2013-09-24 04:59:00,42.3,41.2,30.18,WNW,296,0.0,0.0,96,0.00,,,0.00,0,Wunderground v.1.15,2013-09-24 08:59:00,
2013-09-24 05:01:00,42.4,41.3,30.18,WNW,296,0.0,0.0,96,0.00,,,0.00,0,Wunderground v.1.15,2013-09-24 09:01:00,
2013-09-24 05:03:00,42.4,41.3,30.18,WNW,296,0.0,0.0,96,0.00,,,0.00,0,Wunderground v.1.15,2013-09-24 09:03:00,
2013-09-24 05:05:00,42.5,41.4,30.18,WNW,296,0.0,0.0,96,0.00,,,0.00,0,Wunderground v.1.15,2013-09-24 09:05:00,
2013-09-24 05:06:00,42.5,41.4,30.18,WNW,296,0.0,1.0,96,0.00,,,0.00,0,Wunderground v.1.15,2013-09-24 09:06:00,
2013-09-24 05:09:00,42.5,41.4,30.18,SSE,147,0.0,1.0,96,0.00,,,0.00,0,Wunderground v.1.15,2013-09-24 09:09:00,
2013-09-24 05:11:00,42.5,41.2,30.18,SSE,147,0.0,1.0,95,0.00,,,0.00,0,Wunderground v.1.15,2013-09-24 09:11:00,
2013-09-24 05:12:00,42.4,41.1,30.18,SSE,147,0.0,1.0,95,0.00,,,0.00,0,Wunderground v.1.15,2013-09-24 09:12:00,
2013-09-24 05:13:00,42.4,41.1,30.18,SE,144,1.0,2.0,95,0.00,,,0.00,0,Wunderground v.1.15,2013-09-24 09:13:00,
2013-09-24 05:19:00,42.3,41.0,30.18,WSW,255,1.0,2.0,95,0.00,,,0.00,0,Wunderground v.1.15,2013-09-24 09:19:00,
2013-09-24 05:20:00,42.2,40.9,30.18,WSW,255,1.0,1.0,95,0.00,,,0.00,0,Wunderground v.1.15,2013-09-24 09:20:00,
2013-09-24 05:24:00,42.3,41.0,30.18,NW,311,1.0,2.0,95,0.00,,,0.00,0,Wunderground v.1.15,2013-09-24 09:24:00,
2013-09-24 05:26:00,42.3,41.0,30.18,NW,311,1.0,2.0,95,0.00,,,0.00,0,Wunderground v.1.15,2013-09-24 09:26:00,
2013-09-24 05:27:00,42.3,41.0,30.18,NW,311,1.0,2.0,95,0.00,,,0.00,0,Wunderground v.1.15,2013-09-24 09:27:00,
2013-09-24 05:30:00,42.3,41.0,30.18,NW,313,1.0,1.0,95,0.00,,,0.00,0,Wunderground v.1.15,2013-09-24 09:30:00,
2013-09-24 05:33:00,42.2,40.9,30.18,WNW,297,1.0,1.0,95,0.00,,,0.00,0,Wunderground v.1.15,2013-09-24 09:33:00,
2013-09-24 05:34:00,42.2,40.9,30.18,WNW,297,1.0,1.0,95,0.00,,,0.00,0,Wunderground v.1.15,2013-09-24 09:34:00,
2013-09-24 05:37:00,42.2,40.9,30.18,WNW,289,0.0,1.0,95,0.00,,,0.00,0,Wunderground v.1.15,2013-09-24 09:37:00,
2013-09-24 05:40:00,42.2,40.9,30.18,WNW,288,0.0,0.0,95,0.00,,,0.00,0,Wunderground v.1.15,2013-09-24 09:40:00,
2013-09-24 05:41:00,42.2,40.9,30.18,WNW,289,0.0,0.0,95,0.00,,,0.00,0,Wunderground v.1.15,2013-09-24 09:41:00,
2013-09-24 05:46:00,42.3,41.0,30.18,SE,126,0.0,0.0,95,0.00,,,0.00,0,Wunderground v.1.15,2013-09-24 09:46:00,
2013-09-24 05:47:00,42.3,41.0,30.18,SE,133,0.0,4.0,95,0.00,,,0.00,0,Wunderground v.1.15,2013-09-24 09:47:00,
2013-09-24 05:49:00,42.3,41.0,30.18,ESE,122,1.0,4.0,95,0.00,,,0.00,0,Wunderground v.1.15,2013-09-24 09:49:00,
2013-09-24 05:50:00,42.3,41.0,30.18,ESE,121,1.0,1.0,95,0.00,,,0.00,0,Wunderground v.1.15,2013-09-24 09:50:00,
2013-09-24 05:52:00,42.3,41.0,30.18,SE,128,1.0,2.0,95,0.00,,,0.00,0,Wunderground v.1.15,2013-09-24 09:52:00,
2013-09-24 05:55:00,42.4,41.1,30.18,SE,128,1.0,2.0,95,0.00,,,0.00,0,Wunderground v.1.15,2013-09-24 09:55:00,
2013-09-24 05:58:00,42.4,41.1,30.18,SW,228,1.0,2.0,95,0.00,,,0.00,0,Wunderground v.1.15,2013-09-24 09:58:00,
2013-09-24 06:02:00,42.4,41.1,30.18,SW,228,1.0,1.0,95,0.00,,,0.00,0,Wunderground v.1.15,2013-09-24 10:02:00,
2013-09-24 06:03:00,42.4,41.1,30.18,SW,227,1.0,1.0,95,0.00,,,0.00,0,Wunderground v.1.15,2013-09-24 10:03:00,
2013-09-24 06:05:00,42.5,41.2,30.18,SW,227,0.0,1.0,95,0.00,,,0.00,0,Wunderground v.1.15,2013-09-24 10:05:00,
2013-09-24 06:06:00,42.5,40.9,30.18,SW,227,0.0,1.0,94,0.00,,,0.00,0,Wunderground v.1.15,2013-09-24 10:06:00,
2013-09-24 06:08:00,42.4,40.8,30.18,SW,227,1.0,1.0,94,0.00,,,0.00,0,Wunderground v.1.15,2013-09-24 10:08:00,
2013-09-24 06:10:00,42.4,40.8,30.18,SW,227,0.0,0.0,94,0.00,,,0.00,0,Wunderground v.1.15,2013-09-24 10:10:00,
2013-09-24 06:14:00,42.4,40.8,30.18,SW,227,0.0,0.0,94,0.00,,,0.00,0,Wunderground v.1.15,2013-09-24 10:14:00,
2013-09-24 06:16:00,42.3,40.7,30.17,SW,227,0.0,1.0,94,0.00,,,0.00,0,Wunderground v.1.15,2013-09-24 10:16:00,
2013-09-24 06:20:00,42.3,40.7,30.17,WSW,244,0.0,0.0,94,0.00,,,0.00,0,Wunderground v.1.15,2013-09-24 10:20:00,
2013-09-24 06:21:00,42.3,40.7,30.17,WSW,244,0.0,0.0,94,0.00,,,0.00,0,Wunderground v.1.15,2013-09-24 10:21:00,
2013-09-24 06:22:00,42.3,40.7,30.17,WSW,244,0.0,0.0,94,0.00,,,0.00,0,Wunderground v.1.15,2013-09-24 10:22:00,
2013-09-24 06:25:00,42.3,40.7,30.17,WSW,244,0.0,0.0,94,0.00,,,0.00,0,Wunderground v.1.15,2013-09-24 10:25:00,
2013-09-24 06:28:00,42.3,40.7,30.17,WNW,296,0.0,0.0,94,0.00,,,0.00,0,Wunderground v.1.15,2013-09-24 10:28:00,
2013-09-24 06:30:00,42.2,40.6,30.17,WNW,296,0.0,0.0,94,0.00,,,0.00,0,Wunderground v.1.15,2013-09-24 10:30:00,
2013-09-24 06:31:00,42.3,40.7,30.17,WNW,296,0.0,0.0,94,0.00,,,0.00,0,Wunderground v.1.15,2013-09-24 10:31:00,
2013-09-24 06:32:00,42.3,40.7,30.17,WNW,296,0.0,0.0,94,0.00,,,0.00,0,Wunderground v.1.15,2013-09-24 10:32:00,
2013-09-24 06:35:00,42.2,40.6,30.17,WNW,296,0.0,0.0,94,0.00,,,0.00,0,Wunderground v.1.15,2013-09-24 10:35:00,
2013-09-24 06:38:00,42.1,40.5,30.18,WNW,296,0.0,0.0,94,0.00,,,0.00,0,Wunderground v.1.15,2013-09-24 10:38:00,
2013-09-24 06:40:00,42.1,40.5,30.18,WNW,296,0.0,0.0,94,0.00,,,0.00,0,Wunderground v.1.15,2013-09-24 10:40:00,
2013-09-24 06:43:00,42.1,40.5,30.18,WNW,296,0.0,0.0,94,0.00,,,0.00,0,Wunderground v.1.15,2013-09-24 10:43:00,
2013-09-24 06:45:00,42.0,40.4,30.18,WNW,296,0.0,0.0,94,0.00,,,0.00,0,Wunderground v.1.15,2013-09-24 10:45:00,
2013-09-24 06:46:00,42.0,40.4,30.18,WNW,296,0.0,0.0,94,0.00,,,0.00,0,Wunderground v.1.15,2013-09-24 10:46:00,
2013-09-24 06:47:00,42.0,40.4,30.18,WNW,296,0.0,0.0,94,0.00,,,0.00,0,Wunderground v.1.15,2013-09-24 10:47:00,
2013-09-24 06:48:00,41.9,40.3,30.18,WNW,296,0.0,0.0,94,0.00,,,0.00,0,Wunderground v.1.15,2013-09-24 10:48:00,
2013-09-24 06:51:00,41.9,40.6,30.18,WNW,296,0.0,0.0,95,0.00,,,0.00,0,Wunderground v.1.15,2013-09-24 10:51:00,
2013-09-24 06:52:00,41.9,40.6,30.18,WNW,296,0.0,0.0,95,0.00,,,0.00,0,Wunderground v.1.15,2013-09-24 10:52:00,
2013-09-24 06:54:00,41.8,40.5,30.18,WNW,296,0.0,0.0,95,0.00,,,0.00,0,Wunderground v.1.15,2013-09-24 10:54:00,
2013-09-24 06:56:00,41.7,40.4,30.18,WNW,296,0.0,0.0,95,0.00,,,0.00,0,Wunderground v.1.15,2013-09-24 10:56:00,
2013-09-24 06:58:00,41.6,40.3,30.18,WNW,296,0.0,0.0,95,0.00,,,0.00,5,Wunderground v.1.15,2013-09-24 10:58:00,
2013-09-24 07:00:00,41.5,40.2,30.18,WNW,296,0.0,0.0,95,0.00,,,0.00,5,Wunderground v.1.15,2013-09-24 11:00:00,
2013-09-24 07:03:00,41.5,40.2,30.18,WNW,296,0.0,0.0,95,0.00,,,0.00,9,Wunderground v.1.15,2013-09-24 11:03:00,
2013-09-24 07:04:00,41.5,40.2,30.18,WNW,296,0.0,0.0,95,0.00,,,0.00,11,Wunderground v.1.15,2013-09-24 11:04:00,
2013-09-24 07:07:00,41.4,40.1,30.18,WNW,296,0.0,0.0,95,0.00,,,0.00,18,Wunderground v.1.15,2013-09-24 11:07:00,
2013-09-24 07:11:00,41.4,40.3,30.19,WNW,296,0.0,0.0,96,0.00,,,0.00,21,Wunderground v.1.15,2013-09-24 11:11:00,
2013-09-24 07:13:00,41.4,40.3,30.19,WNW,296,0.0,0.0,96,0.00,,,0.00,23,Wunderground v.1.15,2013-09-24 11:13:00,
2013-09-24 07:14:00,41.5,40.4,30.18,WNW,296,0.0,0.0,96,0.00,,,0.00,23,Wunderground v.1.15,2013-09-24 11:14:00,
2013-09-24 07:16:00,41.5,40.4,30.19,WNW,296,0.0,0.0,96,0.00,,,0.00,23,Wunderground v.1.15,2013-09-24 11:16:00,
2013-09-24 07:18:00,41.5,40.4,30.19,WNW,296,0.0,0.0,96,0.00,,,0.00,16,Wunderground v.1.15,2013-09-24 11:18:00,
2013-09-24 07:21:00,41.6,40.5,30.19,WNW,296,0.0,0.0,96,0.00,,,0.00,16,Wunderground v.1.15,2013-09-24 11:21:00,
2013-09-24 07:24:00,41.7,40.6,30.19,WNW,296,0.0,0.0,96,0.00,,,0.00,16,Wunderground v.1.15,2013-09-24 11:24:00,
2013-09-24 07:26:00,41.7,40.6,30.19,WNW,296,0.0,0.0,96,0.00,,,0.00,18,Wunderground v.1.15,2013-09-24 11:26:00,
2013-09-24 07:28:00,41.8,40.7,30.19,WNW,296,0.0,0.0,96,0.00,,,0.00,18,Wunderground v.1.15,2013-09-24 11:28:00,
2013-09-24 07:30:00,41.9,40.8,30.19,WNW,296,0.0,0.0,96,0.00,,,0.00,18,Wunderground v.1.15,2013-09-24 11:30:00,
2013-09-24 07:31:00,41.9,40.8,30.19,WNW,296,0.0,0.0,96,0.00,,,0.00,18,Wunderground v.1.15,2013-09-24 11:31:00,
2013-09-24 07:35:00,42.0,40.9,30.19,South,178,0.0,0.0,96,0.00,,,0.00,19,Wunderground v.1.15,2013-09-24 11:35:00,
2013-09-24 07:37:00,42.0,40.9,30.19,SSE,158,0.0,0.0,96,0.00,,,0.00,21,Wunderground v.1.15,2013-09-24 11:37:00,
2013-09-24 07:38:00,42.0,40.9,30.19,SSE,158,0.0,0.0,96,0.00,,,0.00,21,Wunderground v.1.15,2013-09-24 11:38:00,
2013-09-24 07:44:00,42.1,41.0,30.19,SE,135,0.0,0.0,96,0.00,,,0.00,23,Wunderground v.1.15,2013-09-24 11:44:00,
2013-09-24 07:45:00,42.1,41.0,30.19,SE,135,0.0,0.0,96,0.00,,,0.00,23,Wunderground v.1.15,2013-09-24 11:45:00,
2013-09-24 07:47:00,42.1,40.8,30.19,SE,135,0.0,0.0,95,0.00,,,0.00,23,Wunderground v.1.15,2013-09-24 11:47:00,
2013-09-24 07:48:00,42.1,40.8,30.19,SE,135,0.0,0.0,95,0.00,,,0.00,25,Wunderground v.1.15,2013-09-24 11:48:00,
2013-09-24 07:50:00,42.2,40.9,30.18,SE,135,0.0,0.0,95,0.00,,,0.00,25,Wunderground v.1.15,2013-09-24 11:50:00,
2013-09-24 07:53:00,42.2,40.9,30.18,SE,135,0.0,0.0,95,0.00,,,0.00,26,Wunderground v.1.15,2013-09-24 11:53:00,
2013-09-24 07:55:00,42.3,41.0,30.19,SE,135,0.0,0.0,95,0.00,,,0.00,26,Wunderground v.1.15,2013-09-24 11:55:00,
2013-09-24 07:57:00,42.4,41.1,30.19,SE,135,0.0,0.0,95,0.00,,,0.00,26,Wunderground v.1.15,2013-09-24 11:57:00,
2013-09-24 08:00:00,42.5,41.2,30.18,SE,135,0.0,0.0,95,0.00,,,0.00,28,Wunderground v.1.15,2013-09-24 12:00:00,
2013-09-24 08:03:00,42.7,41.4,30.18,West,270,0.0,1.0,95,0.00,,,0.00,53,Wunderground v.1.15,2013-09-24 12:03:00,
2013-09-24 08:05:00,42.8,41.5,30.18,West,263,0.0,1.0,95,0.00,,,0.00,58,Wunderground v.1.15,2013-09-24 12:05:00,
2013-09-24 08:07:00,42.9,41.6,30.18,WSW,258,0.0,1.0,95,0.00,,,0.00,37,Wunderground v.1.15,2013-09-24 12:07:00,
2013-09-24 08:08:00,42.9,41.6,30.18,WSW,258,0.0,1.0,95,0.00,,,0.00,33,Wunderground v.1.15,2013-09-24 12:08:00,
2013-09-24 08:09:00,43.0,41.7,30.18,WSW,258,0.0,1.0,95,0.00,,,0.00,33,Wunderground v.1.15,2013-09-24 12:09:00,
2013-09-24 08:10:00,43.0,41.4,30.18,West,260,0.0,1.0,94,0.00,,,0.00,39,Wunderground v.1.15,2013-09-24 12:10:00,
2013-09-24 08:15:00,43.2,41.6,30.18,WNW,283,0.0,1.0,94,0.00,,,0.00,54,Wunderground v.1.15,2013-09-24 12:15:00,
2013-09-24 08:17:00,43.3,41.7,30.18,WNW,283,0.0,2.0,94,0.00,,,0.00,51,Wunderground v.1.15,2013-09-24 12:17:00,
2013-09-24 08:18:00,43.4,41.8,30.18,WNW,283,1.0,2.0,94,0.00,,,0.00,51,Wunderground v.1.15,2013-09-24 12:18:00,
2013-09-24 08:22:00,43.7,41.8,30.18,NW,305,1.0,2.0,93,0.00,,,0.00,60,Wunderground v.1.15,2013-09-24 12:22:00,
2013-09-24 08:23:00,43.8,41.9,30.18,NW,305,1.0,2.0,93,0.00,,,0.00,86,Wunderground v.1.15,2013-09-24 12:23:00,
2013-09-24 08:24:00,43.9,42.0,30.18,NW,305,1.0,2.0,93,0.00,,,0.00,98,Wunderground v.1.15,2013-09-24 12:24:00,
2013-09-24 08:25:00,44.0,42.1,30.18,West,279,1.0,2.0,93,0.00,,,0.00,84,Wunderground v.1.15,2013-09-24 12:25:00,
2013-09-24 08:30:00,44.3,41.8,30.18,SSE,151,1.0,2.0,91,0.00,,,0.00,37,Wunderground v.1.15,2013-09-24 12:30:00,
2013-09-24 08:31:00,44.3,41.8,30.18,SSE,150,1.0,2.0,91,0.00,,,0.00,37,Wunderground v.1.15,2013-09-24 12:31:00,
2013-09-24 08:35:00,44.5,42.0,30.18,SSE,153,1.0,2.0,91,0.00,,,0.00,37,Wunderground v.1.15,2013-09-24 12:35:00,
2013-09-24 08:37:00,44.6,42.1,30.18,SE,135,1.0,4.0,91,0.00,,,0.00,37,Wunderground v.1.15,2013-09-24 12:37:00,
2013-09-24 08:38:00,44.6,42.1,30.18,SE,135,1.0,4.0,91,0.00,,,0.00,37,Wunderground v.1.15,2013-09-24 12:38:00,
2013-09-24 08:39:00,44.6,42.1,30.18,SE,135,1.0,4.0,91,0.00,,,0.00,39,Wunderground v.1.15,2013-09-24 12:39:00,
2013-09-24 08:41:00,44.7,42.2,30.18,SE,135,1.0,1.0,91,0.00,,,0.00,39,Wunderground v.1.15,2013-09-24 12:41:00,
2013-09-24 08:42:00,44.8,42.3,30.18,SE,138,1.0,1.0,91,0.00,,,0.00,39,Wunderground v.1.15,2013-09-24 12:42:00,
2013-09-24 08:44:00,44.9,42.4,30.18,SE,138,1.0,1.0,91,0.00,,,0.00,39,Wunderground v.1.15,2013-09-24 12:44:00,
2013-09-24 08:46:00,45.1,42.9,30.18,WSW,242,1.0,1.0,92,0.00,,,0.00,39,Wunderground v.1.15,2013-09-24 12:46:00,
2013-09-24 08:49:00,45.3,42.8,30.18,WNW,291,1.0,2.0,91,0.00,,,0.00,39,Wunderground v.1.15,2013-09-24 12:49:00,
2013-09-24 08:51:00,45.6,43.1,30.18,WNW,292,1.0,1.0,91,0.00,,,0.00,39,Wunderground v.1.15,2013-09-24 12:51:00,
2013-09-24 08:54:00,45.8,43.0,30.18,North,360,1.0,1.0,90,0.00,,,0.00,39,Wunderground v.1.15,2013-09-24 12:54:00,
2013-09-24 08:55:00,46.0,43.5,30.18,North,355,1.0,1.0,91,0.00,,,0.00,39,Wunderground v.1.15,2013-09-24 12:55:00,
2013-09-24 08:56:00,46.0,43.2,30.18,West,275,1.0,2.0,90,0.00,,,0.00,51,Wunderground v.1.15,2013-09-24 12:56:00,
2013-09-24 08:57:00,46.2,43.4,30.18,WSW,250,1.0,2.0,90,0.00,,,0.00,47,Wunderground v.1.15,2013-09-24 12:57:00,
2013-09-24 08:58:00,46.3,43.5,30.18,WSW,255,1.0,2.0,90,0.00,,,0.00,47,Wunderground v.1.15,2013-09-24 12:58:00,
2013-09-24 09:02:00,46.7,43.6,30.18,NW,320,1.0,1.0,89,0.00,,,0.00,46,Wunderground v.1.15,2013-09-24 13:02:00,
2013-09-24 09:03:00,46.7,43.6,30.18,WNW,294,1.0,4.0,89,0.00,,,0.00,116,Wunderground v.1.15,2013-09-24 13:03:00,
2013-09-24 09:04:00,46.9,43.5,30.18,WNW,296,1.0,4.0,88,0.00,,,0.00,127,Wunderground v.1.15,2013-09-24 13:04:00,
2013-09-24 09:06:00,47.1,44.0,30.18,NNW,341,1.0,4.0,89,0.00,,,0.00,339,Wunderground v.1.15,2013-09-24 13:06:00,
2013-09-24 09:07:00,47.3,44.2,30.18,West,281,1.0,4.0,89,0.00,,,0.00,341,Wunderground v.1.15,2013-09-24 13:07:00,
2013-09-24 09:08:00,47.5,44.1,30.18,West,273,1.0,4.0,88,0.00,,,0.00,343,Wunderground v.1.15,2013-09-24 13:08:00,
2013-09-24 09:09:00,47.6,43.9,30.18,WNW,296,1.0,4.0,87,0.00,,,0.00,346,Wunderground v.1.15,2013-09-24 13:09:00,
2013-09-24 09:13:00,48.1,44.1,30.18,NW,309,2.0,4.0,86,0.00,,,0.00,360,Wunderground v.1.15,2013-09-24 13:13:00,
2013-09-24 09:16:00,48.5,44.5,30.18,NW,311,2.0,4.0,86,0.00,,,0.00,376,Wunderground v.1.15,2013-09-24 13:16:00,
2013-09-24 09:19:00,48.8,44.5,30.18,WNW,292,2.0,4.0,85,0.00,,,0.00,381,Wunderground v.1.15,2013-09-24 13:19:00,
2013-09-24 09:22:00,49.1,44.5,30.18,NW,322,2.0,2.0,84,0.00,,,0.00,392,Wunderground v.1.15,2013-09-24 13:22:00,
2013-09-24 09:23:00,49.2,44.6,30.18,WSW,240,2.0,2.0,84,0.00,,,0.00,396,Wunderground v.1.15,2013-09-24 13:23:00,
2013-09-24 09:25:00,49.5,44.9,30.18,WNW,298,2.0,3.0,84,0.00,,,0.00,401,Wunderground v.1.15,2013-09-24 13:25:00,
2013-09-24 09:26:00,49.6,44.6,30.18,WNW,288,2.0,3.0,83,0.00,,,0.00,408,Wunderground v.1.15,2013-09-24 13:26:00,
2013-09-24 09:28:00,49.8,45.2,30.18,WNW,292,2.0,3.0,84,0.00,,,0.00,415,Wunderground v.1.15,2013-09-24 13:28:00,
2013-09-24 09:29:00,49.9,45.6,30.18,NW,306,2.0,3.0,85,0.00,,,0.00,418,Wunderground v.1.15,2013-09-24 13:29:00,
2013-09-24 09:32:00,50.3,45.3,30.18,WSW,244,2.0,2.0,83,0.00,,,0.00,431,Wunderground v.1.15,2013-09-24 13:32:00,
2013-09-24 09:33:00,50.5,45.5,30.18,WNW,298,2.0,4.0,83,0.00,,,0.00,431,Wunderground v.1.15,2013-09-24 13:33:00,
2013-09-24 09:36:00,50.7,45.1,30.18,NW,306,2.0,5.0,81,0.00,,,0.00,439,Wunderground v.1.15,2013-09-24 13:36:00,
2013-09-24 09:40:00,51.0,45.7,30.18,WSW,242,2.0,2.0,82,0.00,,,0.00,448,Wunderground v.1.15,2013-09-24 13:40:00,
2013-09-24 09:42:00,51.1,45.1,30.18,West,269,3.0,3.0,80,0.00,,,0.00,455,Wunderground v.1.15,2013-09-24 13:42:00,
2013-09-24 09:44:00,51.3,45.7,30.18,WNW,290,2.0,3.0,81,0.00,,,0.00,459,Wunderground v.1.15,2013-09-24 13:44:00,
2013-09-24 09:46:00,51.5,45.9,30.17,West,261,2.0,3.0,81,0.00,,,0.00,466,Wunderground v.1.15,2013-09-24 13:46:00,
2013-09-24 09:51:00,52.0,45.7,30.17,NW,321,2.0,4.0,79,0.00,,,0.00,483,Wunderground v.1.15,2013-09-24 13:51:00,
2013-09-24 09:53:00,52.0,45.4,30.17,WNW,296,3.0,4.0,78,0.00,,,0.00,483,Wunderground v.1.15,2013-09-24 13:53:00,
2013-09-24 09:55:00,52.1,45.4,30.17,WNW,291,3.0,4.0,78,0.00,,,0.00,489,Wunderground v.1.15,2013-09-24 13:55:00,
2013-09-24 09:57:00,52.3,45.3,30.18,NW,304,3.0,5.0,77,0.00,,,0.00,496,Wunderground v.1.15,2013-09-24 13:57:00,
2013-09-24 10:00:00,52.4,45.7,30.17,WNW,298,4.0,4.0,78,0.00,,,0.00,504,Wunderground v.1.15,2013-09-24 14:00:00,
2013-09-24 10:01:00,52.6,46.3,30.17,NNW,332,4.0,4.0,79,0.00,,,0.00,504,Wunderground v.1.15,2013-09-24 14:01:00,
2013-09-24 10:02:00,52.8,46.1,30.17,NNW,336,4.0,5.0,78,0.00,,,0.00,510,Wunderground v.1.15,2013-09-24 14:02:00,
2013-09-24 10:07:00,53.2,45.8,30.17,NW,304,4.0,5.0,76,0.00,,,0.00,520,Wunderground v.1.15,2013-09-24 14:07:00,
2013-09-24 10:09:00,53.3,45.9,30.17,NNW,348,4.0,5.0,76,0.00,,,0.00,526,Wunderground v.1.15,2013-09-24 14:09:00,
2013-09-24 10:11:00,53.5,46.5,30.17,NW,316,4.0,4.0,77,0.00,,,0.00,529,Wunderground v.1.15,2013-09-24 14:11:00,
2013-09-24 10:12:00,53.5,46.5,30.17,North,350,4.0,4.0,77,0.00,,,0.00,533,Wunderground v.1.15,2013-09-24 14:12:00,
2013-09-24 10:14:00,53.7,46.3,30.17,WNW,302,3.0,4.0,76,0.00,,,0.00,536,Wunderground v.1.15,2013-09-24 14:14:00,
2013-09-24 10:17:00,53.7,45.6,30.17,WNW,286,3.0,4.0,74,0.00,,,0.00,543,Wunderground v.1.15,2013-09-24 14:17:00,
2013-09-24 10:18:00,53.7,45.6,30.17,WNW,291,3.0,5.0,74,0.00,,,0.00,547,Wunderground v.1.15,2013-09-24 14:18:00,
2013-09-24 10:19:00,53.6,45.5,30.17,West,267,3.0,5.0,74,0.00,,,0.00,548,Wunderground v.1.15,2013-09-24 14:19:00,
2013-09-24 10:20:00,53.5,45.4,30.16,NW,309,3.0,4.0,74,0.00,,,0.00,552,Wunderground v.1.15,2013-09-24 14:20:00,
2013-09-24 10:21:00,53.5,45.8,30.17,WNW,296,4.0,5.0,75,0.00,,,0.00,554,Wunderground v.1.15,2013-09-24 14:21:00,
2013-09-24 10:22:00,53.3,45.6,30.17,WNW,284,4.0,5.0,75,0.00,,,0.00,557,Wunderground v.1.15,2013-09-24 14:22:00,
2013-09-24 10:25:00,53.3,45.6,30.17,WNW,298,4.0,6.0,75,0.00,,,0.00,561,Wunderground v.1.15,2013-09-24 14:25:00,
2013-09-24 10:26:00,53.3,45.6,30.17,NNW,333,5.0,6.0,75,0.00,,,0.00,566,Wunderground v.1.15,2013-09-24 14:26:00,
2013-09-24 10:29:00,53.5,45.8,30.17,NW,306,4.0,6.0,75,0.00,,,0.00,570,Wunderground v.1.15,2013-09-24 14:29:00,
2013-09-24 10:31:00,53.7,46.0,30.16,North,351,4.0,6.0,75,0.00,,,0.00,573,Wunderground v.1.15,2013-09-24 14:31:00,
2013-09-24 10:32:00,53.8,45.7,30.16,NW,317,4.0,6.0,74,0.00,,,0.00,577,Wunderground v.1.15,2013-09-24 14:32:00,
2013-09-24 10:33:00,53.8,46.1,30.16,WNW,292,4.0,6.0,75,0.00,,,0.00,580,Wunderground v.1.15,2013-09-24 14:33:00,
2013-09-24 10:37:00,54.0,45.5,30.16,West,271,3.0,6.0,73,0.00,,,0.00,587,Wunderground v.1.15,2013-09-24 14:37:00,
2013-09-24 10:38:00,54.0,45.9,30.16,NW,320,3.0,6.0,74,0.00,,,0.00,591,Wunderground v.1.15,2013-09-24 14:38:00,
2013-09-24 10:39:00,54.1,46.3,30.16,WNW,284,3.0,7.0,75,0.00,,,0.00,592,Wunderground v.1.15,2013-09-24 14:39:00,
2013-09-24 10:43:00,54.4,45.9,30.16,NNW,346,3.0,5.0,73,0.00,,,0.00,605,Wunderground v.1.15,2013-09-24 14:43:00,
2013-09-24 10:46:00,54.6,46.5,30.16,WNW,291,4.0,5.0,74,0.00,,,0.00,606,Wunderground v.1.15,2013-09-24 14:46:00,
2013-09-24 10:49:00,54.7,46.2,30.16,NNW,330,3.0,5.0,73,0.00,,,0.00,613,Wunderground v.1.15,2013-09-24 14:49:00,
2013-09-24 10:52:00,55.0,46.9,30.16,WNW,288,3.0,3.0,74,0.00,,,0.00,617,Wunderground v.1.15,2013-09-24 14:52:00,
2013-09-24 10:53:00,55.1,47.0,30.16,North,5,3.0,4.0,74,0.00,,,0.00,619,Wunderground v.1.15,2013-09-24 14:53:00,
2013-09-24 10:54:00,55.2,46.7,30.15,West,270,3.0,4.0,73,0.00,,,0.00,619,Wunderground v.1.15,2013-09-24 14:54:00,
2013-09-24 10:59:00,55.7,46.8,30.15,West,267,2.0,4.0,72,0.00,,,0.00,629,Wunderground v.1.15,2013-09-24 14:59:00,
2013-09-24 11:00:00,55.8,46.9,30.15,West,271,2.0,2.0,72,0.00,,,0.00,633,Wunderground v.1.15,2013-09-24 15:00:00,
2013-09-24 11:03:00,56.3,47.4,30.15,North,355,2.0,4.0,72,0.00,,,0.00,636,Wunderground v.1.15,2013-09-24 15:03:00,
2013-09-24 11:07:00,56.5,46.4,30.15,NNW,338,2.0,4.0,69,0.00,,,0.00,643,Wunderground v.1.15,2013-09-24 15:07:00,
2013-09-24 11:08:00,56.5,46.4,30.15,NW,310,2.0,4.0,69,0.00,,,0.00,649,Wunderground v.1.15,2013-09-24 15:08:00,
2013-09-24 11:09:00,56.6,46.9,30.15,NW,311,2.0,4.0,70,0.00,,,0.00,650,Wunderground v.1.15,2013-09-24 15:09:00,
2013-09-24 11:11:00,56.7,47.0,30.14,NNW,340,2.0,5.0,70,0.00,,,0.00,652,Wunderground v.1.15,2013-09-24 15:11:00,
2013-09-24 11:13:00,56.8,46.7,30.15,NW,325,3.0,5.0,69,0.00,,,0.00,654,Wunderground v.1.15,2013-09-24 15:13:00,
2013-09-24 11:17:00,56.9,47.6,30.14,NW,311,2.0,5.0,71,0.00,,,0.00,663,Wunderground v.1.15,2013-09-24 15:17:00,
2013-09-24 11:18:00,57.0,47.3,30.14,North,5,2.0,5.0,70,0.00,,,0.00,661,Wunderground v.1.15,2013-09-24 15:18:00,
2013-09-24 11:20:00,57.2,47.1,30.14,SW,225,2.0,2.0,69,0.00,,,0.00,664,Wunderground v.1.15,2013-09-24 15:20:00,
2013-09-24 11:24:00,57.5,47.0,30.14,SW,221,2.0,4.0,68,0.00,,,0.00,673,Wunderground v.1.15,2013-09-24 15:24:00,
2013-09-24 11:26:00,57.6,47.1,30.14,NW,314,3.0,4.0,68,0.00,,,0.00,673,Wunderground v.1.15,2013-09-24 15:26:00,
2013-09-24 11:29:00,57.7,47.2,30.14,WNW,302,3.0,5.0,68,0.00,,,0.00,679,Wunderground v.1.15,2013-09-24 15:29:00,
2013-09-24 11:32:00,57.7,46.8,30.14,NNE,13,3.0,4.0,67,0.00,,,0.00,684,Wunderground v.1.15,2013-09-24 15:32:00,
2013-09-24 11:34:00,57.7,47.2,30.14,WNW,295,3.0,5.0,68,0.00,,,0.00,684,Wunderground v.1.15,2013-09-24 15:34:00,
2013-09-24 11:35:00,57.7,46.8,30.14,WNW,294,3.0,5.0,67,0.00,,,0.00,686,Wunderground v.1.15,2013-09-24 15:35:00,
2013-09-24 11:40:00,57.8,47.3,30.14,NW,323,3.0,3.0,68,0.00,,,0.00,693,Wunderground v.1.15,2013-09-24 15:40:00,
2013-09-24 11:41:00,57.9,47.4,30.13,NW,317,3.0,4.0,68,0.00,,,0.00,693,Wunderground v.1.15,2013-09-24 15:41:00,
2013-09-24 11:44:00,58.3,47.8,30.14,NE,37,3.0,4.0,68,0.00,,,0.00,696,Wunderground v.1.15,2013-09-24 15:44:00,
2013-09-24 11:45:00,58.6,48.5,30.13,East,100,2.0,4.0,69,0.00,,,0.00,694,Wunderground v.1.15,2013-09-24 15:45:00,
2013-09-24 11:47:00,59.0,47.7,30.13,WNW,290,2.0,4.0,66,0.00,,,0.00,701,Wunderground v.1.15,2013-09-24 15:47:00,
2013-09-24 11:49:00,59.4,47.6,30.13,WNW,290,2.0,4.0,65,0.00,,,0.00,705,Wunderground v.1.15,2013-09-24 15:49:00,
2013-09-24 11:50:00,59.5,47.7,30.13,WNW,292,2.0,2.0,65,0.00,,,0.00,707,Wunderground v.1.15,2013-09-24 15:50:00,
2013-09-24 11:52:00,59.7,47.1,30.13,West,264,2.0,2.0,63,0.00,,,0.00,708,Wunderground v.1.15,2013-09-24 15:52:00,
2013-09-24 11:54:00,59.8,48.0,30.13,NNW,329,2.0,2.0,65,0.00,,,0.00,707,Wunderground v.1.15,2013-09-24 15:54:00,
2013-09-24 11:56:00,59.9,48.1,30.13,West,273,2.0,4.0,65,0.00,,,0.00,708,Wunderground v.1.15,2013-09-24 15:56:00,
2013-09-24 11:59:00,60.0,47.4,30.13,WNW,285,2.0,4.0,63,0.00,,,0.00,715,Wunderground v.1.15,2013-09-24 15:59:00,
2013-09-24 12:02:00,60.2,47.6,30.13,East,84,2.0,2.0,63,0.00,,,0.00,717,Wunderground v.1.15,2013-09-24 16:02:00,
2013-09-24 12:03:00,60.2,47.6,30.13,ESE,103,2.0,2.0,63,0.00,,,0.00,717,Wunderground v.1.15,2013-09-24 16:03:00,
2013-09-24 12:04:00,60.5,47.8,30.12,NW,310,2.0,4.0,63,0.00,,,0.00,721,Wunderground v.1.15,2013-09-24 16:04:00,
2013-09-24 12:06:00,60.6,48.4,30.12,WNW,283,2.0,4.0,64,0.00,,,0.00,721,Wunderground v.1.15,2013-09-24 16:06:00,
2013-09-24 12:07:00,60.6,47.5,30.12,SW,223,3.0,5.0,62,0.00,,,0.00,722,Wunderground v.1.15,2013-09-24 16:07:00,
2013-09-24 12:10:00,60.7,47.6,30.12,NNE,16,2.0,2.0,62,0.00,,,0.00,724,Wunderground v.1.15,2013-09-24 16:10:00,
2013-09-24 12:11:00,60.7,48.0,30.12,WNW,282,2.0,2.0,63,0.00,,,0.00,724,Wunderground v.1.15,2013-09-24 16:11:00,
2013-09-24 12:13:00,60.8,47.7,30.12,NNW,336,2.0,5.0,62,0.00,,,0.00,726,Wunderground v.1.15,2013-09-24 16:13:00,
2013-09-24 12:15:00,61.1,48.0,30.11,WNW,293,3.0,5.0,62,0.00,,,0.00,728,Wunderground v.1.15,2013-09-24 16:15:00,
2013-09-24 12:18:00,61.2,47.2,30.11,SE,145,3.0,5.0,60,0.00,,,0.00,729,Wunderground v.1.15,2013-09-24 16:18:00,
2013-09-24 12:20:00,61.3,47.3,30.11,WSW,245,3.0,3.0,60,0.00,,,0.00,729,Wunderground v.1.15,2013-09-24 16:20:00,
2013-09-24 12:23:00,61.3,48.2,30.11,North,355,3.0,4.0,62,0.00,,,0.00,731,Wunderground v.1.15,2013-09-24 16:23:00,
2013-09-24 12:24:00,61.5,48.4,30.11,West,276,3.0,4.0,62,0.00,,,0.00,731,Wunderground v.1.15,2013-09-24 16:24:00,
2013-09-24 12:29:00,61.6,47.6,30.11,NNW,338,3.0,5.0,60,0.00,,,0.00,737,Wunderground v.1.15,2013-09-24 16:29:00,
2013-09-24 12:30:00,61.6,47.6,30.11,NW,326,3.0,3.0,60,0.00,,,0.00,735,Wunderground v.1.15,2013-09-24 16:30:00,
2013-09-24 12:31:00,61.7,47.7,30.11,WSW,254,3.0,3.0,60,0.00,,,0.00,737,Wunderground v.1.15,2013-09-24 16:31:00,
2013-09-24 12:33:00,61.8,47.3,30.11,NNW,348,3.0,4.0,59,0.00,,,0.00,737,Wunderground v.1.15,2013-09-24 16:33:00,
2013-09-24 12:37:00,62.1,48.0,30.11,SSW,202,3.0,4.0,60,0.00,,,0.00,738,Wunderground v.1.15,2013-09-24 16:37:00,
2013-09-24 12:38:00,62.3,48.2,30.11,WNW,300,2.0,4.0,60,0.00,,,0.00,738,Wunderground v.1.15,2013-09-24 16:38:00,
2013-09-24 12:40:00,62.5,48.0,30.11,ESE,115,2.0,5.0,59,0.00,,,0.00,738,Wunderground v.1.15,2013-09-24 16:40:00,
2013-09-24 12:44:00,62.7,48.2,30.10,WNW,284,3.0,5.0,59,0.00,,,0.00,740,Wunderground v.1.15,2013-09-24 16:44:00,
2013-09-24 12:45:00,62.8,47.8,30.10,West,270,3.0,5.0,58,0.00,,,0.00,738,Wunderground v.1.15,2013-09-24 16:45:00,
2013-09-24 12:48:00,63.2,49.1,30.10,WNW,291,3.0,6.0,60,0.00,,,0.00,742,Wunderground v.1.15,2013-09-24 16:48:00,
2013-09-24 12:50:00,63.5,48.5,30.10,North,355,3.0,4.0,58,0.00,,,0.00,740,Wunderground v.1.15,2013-09-24 16:50:00,
2013-09-24 12:52:00,63.8,49.6,30.10,NW,315,3.0,4.0,60,0.00,,,0.00,742,Wunderground v.1.15,2013-09-24 16:52:00,
2013-09-24 12:53:00,63.9,48.8,30.10,WNW,284,3.0,4.0,58,0.00,,,0.00,742,Wunderground v.1.15,2013-09-24 16:53:00,
2013-09-24 12:55:00,64.0,48.9,30.10,SE,135,3.0,4.0,58,0.00,,,0.00,744,Wunderground v.1.15,2013-09-24 16:55:00,
2013-09-24 12:57:00,64.1,48.5,30.10,WNW,295,2.0,4.0,57,0.00,,,0.00,744,Wunderground v.1.15,2013-09-24 16:57:00,
2013-09-24 12:58:00,64.1,48.1,30.09,SSW,197,2.0,4.0,56,0.00,,,0.00,744,Wunderground v.1.15,2013-09-24 16:58:00,
2013-09-24 13:00:00,64.1,48.5,30.09,WSW,252,2.0,4.0,57,0.00,,,0.00,744,Wunderground v.1.15,2013-09-24 17:00:00,
2013-09-24 13:01:00,64.1,48.1,30.09,NNE,29,2.0,4.0,56,0.00,,,0.00,745,Wunderground v.1.15,2013-09-24 17:01:00,
2013-09-24 13:04:00,64.1,48.1,30.09,WNW,297,2.0,4.0,56,0.00,,,0.00,745,Wunderground v.1.15,2013-09-24 17:04:00,
2013-09-24 13:07:00,64.4,48.4,30.09,North,5,3.0,4.0,56,0.00,,,0.00,740,Wunderground v.1.15,2013-09-24 17:07:00,
2013-09-24 13:09:00,64.5,48.0,30.09,NNW,331,3.0,4.0,55,0.00,,,0.00,740,Wunderground v.1.15,2013-09-24 17:09:00,
2013-09-24 13:12:00,64.4,48.4,30.09,West,278,2.0,4.0,56,0.00,,,0.00,738,Wunderground v.1.15,2013-09-24 17:12:00,
2013-09-24 13:15:00,64.6,48.1,30.08,WNW,290,2.0,4.0,55,0.00,,,0.00,738,Wunderground v.1.15,2013-09-24 17:15:00,
2013-09-24 13:17:00,64.8,48.2,30.08,NW,311,3.0,6.0,55,0.00,,,0.00,740,Wunderground v.1.15,2013-09-24 17:17:00,
2013-09-24 13:18:00,64.9,48.8,30.08,North,9,3.0,6.0,56,0.00,,,0.00,738,Wunderground v.1.15,2013-09-24 17:18:00,
2013-09-24 13:20:00,64.9,48.3,30.08,ESE,121,3.0,3.0,55,0.00,,,0.00,738,Wunderground v.1.15,2013-09-24 17:20:00,
2013-09-24 13:24:00,65.2,48.1,30.08,NW,304,3.0,4.0,54,0.00,,,0.00,737,Wunderground v.1.15,2013-09-24 17:24:00,
2013-09-24 13:25:00,65.2,48.1,30.08,NW,306,3.0,4.0,54,0.00,,,0.00,738,Wunderground v.1.15,2013-09-24 17:25:00,
2013-09-24 13:30:00,65.7,49.6,30.08,SSW,209,2.0,2.0,56,0.00,,,0.00,733,Wunderground v.1.15,2013-09-24 17:30:00,
2013-09-24 13:31:00,65.9,48.8,30.08,NW,319,2.0,4.0,54,0.00,,,0.00,733,Wunderground v.1.15,2013-09-24 17:31:00,
2013-09-24 13:32:00,66.0,48.4,30.08,NNE,15,2.0,4.0,53,0.00,,,0.00,731,Wunderground v.1.15,2013-09-24 17:32:00,
2013-09-24 13:33:00,66.1,48.0,30.08,North,355,2.0,4.0,52,0.00,,,0.00,731,Wunderground v.1.15,2013-09-24 17:33:00,
2013-09-24 13:38:00,66.3,47.6,30.07,WNW,286,3.0,4.0,51,0.00,,,0.00,728,Wunderground v.1.15,2013-09-24 17:38:00,
2013-09-24 13:39:00,66.3,48.1,30.07,North,5,3.0,4.0,52,0.00,,,0.00,726,Wunderground v.1.15,2013-09-24 17:39:00,
2013-09-24 13:40:00,66.2,47.5,30.07,NNW,329,3.0,3.0,51,0.00,,,0.00,726,Wunderground v.1.15,2013-09-24 17:40:00,
2013-09-24 13:41:00,66.3,48.1,30.07,WSW,240,3.0,3.0,52,0.00,,,0.00,724,Wunderground v.1.15,2013-09-24 17:41:00,
2013-09-24 13:47:00,66.7,48.0,30.07,SW,223,2.0,4.0,51,0.00,,,0.00,721,Wunderground v.1.15,2013-09-24 17:47:00,
2013-09-24 13:49:00,66.9,48.2,30.07,NW,310,2.0,4.0,51,0.00,,,0.00,721,Wunderground v.1.15,2013-09-24 17:49:00,
2013-09-24 13:53:00,67.2,47.9,30.07,NW,304,3.0,4.0,50,0.00,,,0.00,714,Wunderground v.1.15,2013-09-24 17:53:00,
2013-09-24 13:56:00,67.3,48.0,30.07,WNW,300,3.0,5.0,50,0.00,,,0.00,710,Wunderground v.1.15,2013-09-24 17:56:00,
2013-09-24 13:57:00,67.3,48.0,30.07,North,360,3.0,5.0,50,0.00,,,0.00,710,Wunderground v.1.15,2013-09-24 17:57:00,
2013-09-24 14:01:00,67.4,47.6,30.06,WNW,289,3.0,5.0,49,0.00,,,0.00,707,Wunderground v.1.15,2013-09-24 18:01:00,
2013-09-24 14:03:00,67.5,48.2,30.06,WNW,302,3.0,5.0,50,0.00,,,0.00,701,Wunderground v.1.15,2013-09-24 18:03:00,
2013-09-24 14:06:00,67.4,47.0,30.06,WNW,295,3.0,5.0,48,0.00,,,0.00,698,Wunderground v.1.15,2013-09-24 18:06:00,
2013-09-24 14:07:00,67.3,46.9,30.06,WNW,299,3.0,7.0,48,0.00,,,0.00,698,Wunderground v.1.15,2013-09-24 18:07:00,
2013-09-24 14:08:00,67.3,47.5,30.06,WSW,256,3.0,7.0,49,0.00,,,0.00,696,Wunderground v.1.15,2013-09-24 18:08:00,
2013-09-24 14:12:00,67.4,47.0,30.06,NW,311,4.0,6.0,48,0.00,,,0.00,689,Wunderground v.1.15,2013-09-24 18:12:00,
2013-09-24 14:14:00,67.5,47.1,30.06,North,350,4.0,6.0,48,0.00,,,0.00,686,Wunderground v.1.15,2013-09-24 18:14:00,
2013-09-24 14:15:00,67.6,47.2,30.06,SSW,204,4.0,6.0,48,0.00,,,0.00,684,Wunderground v.1.15,2013-09-24 18:15:00,
2013-09-24 14:18:00,67.6,47.8,30.06,East,80,3.0,6.0,49,0.00,,,0.00,684,Wunderground v.1.15,2013-09-24 18:18:00,
2013-09-24 14:19:00,67.7,47.3,30.06,NNE,17,3.0,6.0,48,0.00,,,0.00,682,Wunderground v.1.15,2013-09-24 18:19:00,
2013-09-24 14:21:00,67.9,47.5,30.06,North,349,3.0,3.0,48,0.00,,,0.00,675,Wunderground v.1.15,2013-09-24 18:21:00,
2013-09-24 14:22:00,68.0,48.1,30.06,NW,309,2.0,3.0,49,0.00,,,0.00,675,Wunderground v.1.15,2013-09-24 18:22:00,
2013-09-24 14:26:00,68.3,48.4,30.06,NNW,340,3.0,5.0,49,0.00,,,0.00,671,Wunderground v.1.15,2013-09-24 18:26:00,
2013-09-24 14:28:00,68.3,47.3,30.06,NE,55,3.0,5.0,47,0.00,,,0.00,668,Wunderground v.1.15,2013-09-24 18:28:00,
2013-09-24 14:33:00,68.6,47.6,30.05,WNW,300,3.0,5.0,47,0.00,,,0.00,657,Wunderground v.1.15,2013-09-24 18:33:00,
2013-09-24 14:35:00,68.6,47.6,30.05,WNW,290,3.0,5.0,47,0.00,,,0.00,657,Wunderground v.1.15,2013-09-24 18:35:00,
2013-09-24 14:37:00,68.6,47.6,30.05,NW,311,3.0,6.0,47,0.00,,,0.00,652,Wunderground v.1.15,2013-09-24 18:37:00,
2013-09-24 14:39:00,68.6,47.0,30.05,North,360,3.0,6.0,46,0.00,,,0.00,650,Wunderground v.1.15,2013-09-24 18:39:00,
2013-09-24 14:43:00,68.9,47.8,30.05,WSW,244,2.0,3.0,47,0.00,,,0.00,643,Wunderground v.1.15,2013-09-24 18:43:00,
2013-09-24 14:44:00,69.0,47.4,30.05,NW,304,2.0,4.0,46,0.00,,,0.00,642,Wunderground v.1.15,2013-09-24 18:44:00,
2013-09-24 14:46:00,69.3,47.6,30.05,NW,313,2.0,4.0,46,0.00,,,0.00,636,Wunderground v.1.15,2013-09-24 18:46:00,
2013-09-24 14:49:00,69.6,47.3,30.05,WSW,253,3.0,5.0,45,0.00,,,0.00,631,Wunderground v.1.15,2013-09-24 18:49:00,
2013-09-24 14:51:00,69.6,47.3,30.05,NW,325,3.0,5.0,45,0.00,,,0.00,629,Wunderground v.1.15,2013-09-24 18:51:00,
2013-09-24 14:54:00,69.5,47.2,30.05,NW,320,3.0,5.0,45,0.00,,,0.00,624,Wunderground v.1.15,2013-09-24 18:54:00,
2013-09-24 14:55:00,69.5,47.2,30.05,WSW,246,3.0,5.0,45,0.00,,,0.00,622,Wunderground v.1.15,2013-09-24 18:55:00,
2013-09-24 14:58:00,69.4,47.1,30.05,NE,54,3.0,6.0,45,0.00,,,0.00,615,Wunderground v.1.15,2013-09-24 18:58:00,
2013-09-24 15:00:00,69.4,47.1,30.05,WSW,250,3.0,3.0,45,0.00,,,0.00,612,Wunderground v.1.15,2013-09-24 19:00:00,
2013-09-24 15:01:00,69.4,47.1,30.05,NW,311,3.0,4.0,45,0.00,,,0.00,610,Wunderground v.1.15,2013-09-24 19:01:00,
2013-09-24 15:02:00,69.4,47.1,30.05,East,81,3.0,4.0,45,0.00,,,0.00,610,Wunderground v.1.15,2013-09-24 19:02:00,
2013-09-24 15:05:00,69.4,47.1,30.04,West,259,3.0,5.0,45,0.00,,,0.00,601,Wunderground v.1.15,2013-09-24 19:05:00,
2013-09-24 15:06:00,69.5,47.2,30.04,NW,313,3.0,5.0,45,0.00,,,0.00,601,Wunderground v.1.15,2013-09-24 19:06:00,
2013-09-24 15:12:00,69.8,46.9,30.04,West,264,2.0,5.0,44,0.00,,,0.00,543,Wunderground v.1.15,2013-09-24 19:12:00,
2013-09-24 15:13:00,69.7,46.2,30.03,WSW,246,2.0,5.0,43,0.00,,,0.00,543,Wunderground v.1.15,2013-09-24 19:13:00,
2013-09-24 15:14:00,69.6,46.7,30.03,WNW,297,2.0,5.0,44,0.00,,,0.00,35,Wunderground v.1.15,2013-09-24 19:14:00,
2013-09-24 15:17:00,69.4,47.1,30.03,West,268,3.0,5.0,45,0.00,,,0.00,35,Wunderground v.1.15,2013-09-24 19:17:00,
2013-09-24 15:20:00,69.4,46.5,30.03,West,281,4.0,4.0,44,0.00,,,0.00,35,Wunderground v.1.15,2013-09-24 19:20:00,
2013-09-24 15:23:00,69.2,46.9,30.03,West,276,3.0,4.0,45,0.00,,,0.00,35,Wunderground v.1.15,2013-09-24 19:23:00,
2013-09-24 15:24:00,69.2,46.9,30.03,WNW,286,3.0,4.0,45,0.00,,,0.00,93,Wunderground v.1.15,2013-09-24 19:24:00,
2013-09-24 15:25:00,69.3,47.0,30.03,WNW,298,3.0,5.0,45,0.00,,,0.00,93,Wunderground v.1.15,2013-09-24 19:25:00,
2013-09-24 15:29:00,69.5,46.0,30.03,West,275,4.0,7.0,43,0.00,,,0.00,550,Wunderground v.1.15,2013-09-24 19:29:00,
2013-09-24 15:32:00,69.5,46.6,30.03,West,271,4.0,4.0,44,0.00,,,0.00,541,Wunderground v.1.15,2013-09-24 19:32:00,
2013-09-24 15:33:00,69.5,46.6,30.03,NW,323,4.0,4.0,44,0.00,,,0.00,540,Wunderground v.1.15,2013-09-24 19:33:00,
2013-09-24 15:35:00,69.6,46.7,30.03,North,5,4.0,4.0,44,0.00,,,0.00,536,Wunderground v.1.15,2013-09-24 19:35:00,
2013-09-24 15:39:00,69.7,46.2,30.02,NW,326,3.0,5.0,43,0.00,,,0.00,527,Wunderground v.1.15,2013-09-24 19:39:00,
2013-09-24 15:40:00,69.8,46.3,30.02,ESE,109,3.0,3.0,43,0.00,,,0.00,526,Wunderground v.1.15,2013-09-24 19:40:00,
2013-09-24 15:41:00,69.8,46.9,30.02,West,273,3.0,7.0,44,0.00,,,0.00,520,Wunderground v.1.15,2013-09-24 19:41:00,
2013-09-24 15:45:00,70.1,45.9,30.02,WSW,258,4.0,7.0,42,0.00,,,0.00,513,Wunderground v.1.15,2013-09-24 19:45:00,
2013-09-24 15:46:00,70.1,46.6,30.02,NW,321,4.0,7.0,43,0.00,,,0.00,510,Wunderground v.1.15,2013-09-24 19:46:00,
2013-09-24 15:49:00,70.1,46.6,30.02,West,267,4.0,7.0,43,0.00,,,0.00,503,Wunderground v.1.15,2013-09-24 19:49:00,
2013-09-24 15:52:00,70.1,46.6,30.02,SW,224,4.0,4.0,43,0.00,,,0.00,497,Wunderground v.1.15,2013-09-24 19:52:00,
2013-09-24 15:54:00,70.0,46.5,30.02,NW,312,4.0,6.0,43,0.00,,,0.00,490,Wunderground v.1.15,2013-09-24 19:54:00,
2013-09-24 15:56:00,70.1,45.9,30.02,North,5,4.0,6.0,42,0.00,,,0.00,489,Wunderground v.1.15,2013-09-24 19:56:00,
2013-09-24 15:57:00,70.1,45.9,30.02,North,5,4.0,7.0,42,0.00,,,0.00,482,Wunderground v.1.15,2013-09-24 19:57:00,
2013-09-24 16:00:00,70.2,46.0,30.02,WNW,303,4.0,4.0,42,0.00,,,0.00,390,Wunderground v.1.15,2013-09-24 20:00:00,
2013-09-24 16:02:00,70.4,46.8,30.02,North,349,3.0,4.0,43,0.00,,,0.00,35,Wunderground v.1.15,2013-09-24 20:02:00,
2013-09-24 16:05:00,70.6,47.0,30.02,NW,306,3.0,6.0,43,0.00,,,0.00,88,Wunderground v.1.15,2013-09-24 20:05:00,
2013-09-24 16:09:00,71.0,46.7,30.02,WNW,292,3.0,6.0,42,0.00,,,0.00,220,Wunderground v.1.15,2013-09-24 20:09:00,
2013-09-24 16:10:00,71.1,46.8,30.02,West,265,3.0,5.0,42,0.00,,,0.00,318,Wunderground v.1.15,2013-09-24 20:10:00,
2013-09-24 16:12:00,71.1,46.2,30.02,North,351,3.0,5.0,41,0.00,,,0.00,128,Wunderground v.1.15,2013-09-24 20:12:00,
2013-09-24 16:16:00,71.2,46.3,30.02,NW,324,4.0,5.0,41,0.00,,,0.00,97,Wunderground v.1.15,2013-09-24 20:16:00,
2013-09-24 16:18:00,71.2,46.3,30.02,WSW,249,4.0,5.0,41,0.00,,,0.00,32,Wunderground v.1.15,2013-09-24 20:18:00,
2013-09-24 16:19:00,71.2,46.3,30.02,West,274,4.0,5.0,41,0.00,,,0.00,35,Wunderground v.1.15,2013-09-24 20:19:00,
2013-09-24 16:20:00,71.2,46.3,30.02,WNW,294,3.0,3.0,41,0.00,,,0.00,37,Wunderground v.1.15,2013-09-24 20:20:00,
2013-09-24 16:24:00,71.3,45.7,30.02,WNW,294,3.0,4.0,40,0.00,,,0.00,49,Wunderground v.1.15,2013-09-24 20:24:00,
2013-09-24 16:25:00,71.4,46.5,30.02,NNE,15,3.0,4.0,41,0.00,,,0.00,79,Wunderground v.1.15,2013-09-24 20:25:00,
2013-09-24 16:26:00,71.4,46.5,30.02,WNW,303,3.0,4.0,41,0.00,,,0.00,162,Wunderground v.1.15,2013-09-24 20:26:00,
2013-09-24 16:31:00,71.4,46.5,30.02,West,274,3.0,6.0,41,0.00,,,0.00,42,Wunderground v.1.15,2013-09-24 20:31:00,
2013-09-24 16:32:00,71.4,45.8,30.02,NW,321,3.0,6.0,40,0.00,,,0.00,32,Wunderground v.1.15,2013-09-24 20:32:00,
2013-09-24 16:36:00,71.3,46.4,30.02,NNW,342,3.0,6.0,41,0.00,,,0.00,30,Wunderground v.1.15,2013-09-24 20:36:00,
2013-09-24 16:38:00,71.3,47.0,30.01,West,279,4.0,6.0,42,0.00,,,0.00,30,Wunderground v.1.15,2013-09-24 20:38:00,
2013-09-24 16:39:00,71.3,46.4,30.01,North,360,4.0,4.0,41,0.00,,,0.00,30,Wunderground v.1.15,2013-09-24 20:39:00,
2013-09-24 16:41:00,71.3,47.6,30.02,West,278,4.0,5.0,43,0.00,,,0.00,30,Wunderground v.1.15,2013-09-24 20:41:00,
2013-09-24 16:42:00,71.3,47.6,30.01,WNW,284,4.0,5.0,43,0.00,,,0.00,30,Wunderground v.1.15,2013-09-24 20:42:00,
2013-09-24 16:45:00,71.2,45.6,30.01,NNW,347,4.0,6.0,40,0.00,,,0.00,30,Wunderground v.1.15,2013-09-24 20:45:00,
2013-09-24 16:46:00,71.2,46.3,30.01,NNW,329,4.0,6.0,41,0.00,,,0.00,30,Wunderground v.1.15,2013-09-24 20:46:00,
2013-09-24 16:47:00,71.2,45.6,30.01,NNW,339,4.0,6.0,40,0.00,,,0.00,30,Wunderground v.1.15,2013-09-24 20:47:00,
2013-09-24 16:48:00,71.2,46.9,30.01,NNW,327,4.0,6.0,42,0.00,,,0.00,30,Wunderground v.1.15,2013-09-24 20:48:00,
2013-09-24 16:54:00,71.5,46.6,30.01,WNW,283,3.0,4.0,41,0.00,,,0.00,28,Wunderground v.1.15,2013-09-24 20:54:00,
2013-09-24 16:55:00,71.5,47.2,30.01,WNW,296,3.0,4.0,42,0.00,,,0.00,28,Wunderground v.1.15,2013-09-24 20:55:00,
2013-09-24 16:56:00,71.6,46.6,30.01,WNW,284,3.0,5.0,41,0.00,,,0.00,28,Wunderground v.1.15,2013-09-24 20:56:00,
2013-09-24 17:00:00,71.6,46.6,30.01,NW,317,3.0,3.0,41,0.00,,,0.00,28,Wunderground v.1.15,2013-09-24 21:00:00,
2013-09-24 17:01:00,71.6,46.6,30.01,North,350,3.0,4.0,41,0.00,,,0.00,28,Wunderground v.1.15,2013-09-24 21:01:00,
2013-09-24 17:04:00,71.6,46.6,30.01,WNW,295,3.0,4.0,41,0.00,,,0.00,28,Wunderground v.1.15,2013-09-24 21:04:00,
2013-09-24 17:05:00,71.6,46.0,30.01,NW,320,3.0,4.0,40,0.00,,,0.00,28,Wunderground v.1.15,2013-09-24 21:05:00,
2013-09-24 17:09:00,71.6,46.0,30.01,WNW,302,3.0,5.0,40,0.00,,,0.00,28,Wunderground v.1.15,2013-09-24 21:09:00,
2013-09-24 17:11:00,71.7,46.1,30.01,North,360,3.0,8.0,40,0.00,,,0.00,28,Wunderground v.1.15,2013-09-24 21:11:00,
2013-09-24 17:12:00,71.7,45.4,30.01,North,5,3.0,8.0,39,0.00,,,0.00,28,Wunderground v.1.15,2013-09-24 21:12:00,
2013-09-24 17:13:00,71.7,45.4,30.01,NNW,340,3.0,8.0,39,0.00,,,0.00,28,Wunderground v.1.15,2013-09-24 21:13:00,
2013-09-24 17:17:00,71.7,44.7,30.01,North,355,4.0,8.0,38,0.00,,,0.00,35,Wunderground v.1.15,2013-09-24 21:17:00,
2013-09-24 17:19:00,71.7,44.0,30.01,NW,313,3.0,8.0,37,0.00,,,0.00,30,Wunderground v.1.15,2013-09-24 21:19:00,
2013-09-24 17:20:00,71.7,44.0,30.01,SW,234,3.0,4.0,37,0.00,,,0.00,28,Wunderground v.1.15,2013-09-24 21:20:00,
2013-09-24 17:21:00,71.6,43.9,30.01,NNW,348,3.0,4.0,37,0.00,,,0.00,26,Wunderground v.1.15,2013-09-24 21:21:00,
2013-09-24 17:25:00,71.5,43.8,30.01,NW,304,2.0,4.0,37,0.00,,,0.00,32,Wunderground v.1.15,2013-09-24 21:25:00,
2013-09-24 17:26:00,71.5,43.8,30.01,West,268,2.0,4.0,37,0.00,,,0.00,26,Wunderground v.1.15,2013-09-24 21:26:00,
2013-09-24 17:27:00,71.5,43.8,30.01,North,360,2.0,4.0,37,0.00,,,0.00,26,Wunderground v.1.15,2013-09-24 21:27:00,
2013-09-24 17:30:00,71.4,43.8,30.01,ENE,77,2.0,2.0,37,0.00,,,0.00,32,Wunderground v.1.15,2013-09-24 21:30:00,
2013-09-24 17:33:00,71.3,43.7,30.01,SSW,206,2.0,3.0,37,0.00,,,0.00,25,Wunderground v.1.15,2013-09-24 21:33:00,
2013-09-24 17:37:00,71.2,44.3,30.01,SSW,211,2.0,5.0,38,0.00,,,0.00,25,Wunderground v.1.15,2013-09-24 21:37:00,
2013-09-24 17:39:00,71.2,43.6,30.01,WSW,244,2.0,5.0,37,0.00,,,0.00,25,Wunderground v.1.15,2013-09-24 21:39:00,
2013-09-24 17:43:00,71.1,43.5,30.01,NNE,31,2.0,4.0,37,0.00,,,0.00,25,Wunderground v.1.15,2013-09-24 21:43:00,
2013-09-24 17:44:00,71.1,43.5,30.02,North,360,2.0,4.0,37,0.00,,,0.00,25,Wunderground v.1.15,2013-09-24 21:44:00,
2013-09-24 17:49:00,71.0,44.1,30.02,North,355,2.0,4.0,38,0.00,,,0.00,23,Wunderground v.1.15,2013-09-24 21:49:00,
2013-09-24 17:50:00,71.0,43.4,30.02,NNE,19,2.0,2.0,37,0.00,,,0.00,23,Wunderground v.1.15,2013-09-24 21:50:00,
2013-09-24 17:51:00,70.9,43.3,30.02,NNE,28,2.0,5.0,37,0.00,,,0.00,23,Wunderground v.1.15,2013-09-24 21:51:00,
2013-09-24 17:52:00,70.9,44.0,30.01,North,351,2.0,5.0,38,0.00,,,0.00,23,Wunderground v.1.15,2013-09-24 21:52:00,
2013-09-24 17:55:00,70.9,44.0,30.01,NNE,15,2.0,5.0,38,0.00,,,0.00,23,Wunderground v.1.15,2013-09-24 21:55:00,
2013-09-24 17:57:00,70.8,43.9,30.01,NNW,331,2.0,5.0,38,0.00,,,0.00,23,Wunderground v.1.15,2013-09-24 21:57:00,
2013-09-24 17:58:00,70.8,43.9,30.01,NNE,31,2.0,5.0,38,0.00,,,0.00,23,Wunderground v.1.15,2013-09-24 21:58:00,
2013-09-24 18:00:00,70.7,43.8,30.01,NNW,335,2.0,2.0,38,0.00,,,0.00,21,Wunderground v.1.15,2013-09-24 22:00:00,
2013-09-24 18:02:00,70.7,43.8,30.01,West,281,2.0,2.0,38,0.00,,,0.00,21,Wunderground v.1.15,2013-09-24 22:02:00,
2013-09-24 18:03:00,70.6,43.7,30.00,SW,230,2.0,4.0,38,0.00,,,0.00,21,Wunderground v.1.15,2013-09-24 22:03:00,
2013-09-24 18:07:00,70.5,43.7,30.00,East,84,2.0,4.0,38,0.00,,,0.00,21,Wunderground v.1.15,2013-09-24 22:07:00,
2013-09-24 18:08:00,70.4,43.6,30.00,NW,324,2.0,4.0,38,0.00,,,0.00,21,Wunderground v.1.15,2013-09-24 22:08:00,
2013-09-24 18:10:00,70.4,44.3,30.00,NNW,342,2.0,2.0,39,0.00,,,0.00,19,Wunderground v.1.15,2013-09-24 22:10:00,
2013-09-24 18:12:00,70.3,43.5,30.00,North,11,2.0,2.0,38,0.00,,,0.00,19,Wunderground v.1.15,2013-09-24 22:12:00,
2013-09-24 18:15:00,70.2,44.1,30.00,North,360,2.0,2.0,39,0.00,,,0.00,19,Wunderground v.1.15,2013-09-24 22:15:00,
2013-09-24 18:16:00,70.1,44.0,30.00,WNW,298,1.0,2.0,39,0.00,,,0.00,19,Wunderground v.1.15,2013-09-24 22:16:00,
2013-09-24 18:18:00,70.0,43.2,30.00,NW,309,2.0,2.0,38,0.00,,,0.00,19,Wunderground v.1.15,2013-09-24 22:18:00,
2013-09-24 18:19:00,69.9,43.8,30.01,NW,313,2.0,2.0,39,0.00,,,0.00,18,Wunderground v.1.15,2013-09-24 22:19:00,
2013-09-24 18:21:00,69.9,43.8,30.01,NW,304,2.0,2.0,39,0.00,,,0.00,18,Wunderground v.1.15,2013-09-24 22:21:00,
2013-09-24 18:24:00,69.8,43.7,30.01,NE,34,2.0,2.0,39,0.00,,,0.00,18,Wunderground v.1.15,2013-09-24 22:24:00,
2013-09-24 18:25:00,69.7,44.3,30.01,NNW,345,1.0,2.0,40,0.00,,,0.00,18,Wunderground v.1.15,2013-09-24 22:25:00,
2013-09-24 18:26:00,69.7,44.3,30.01,WNW,285,1.0,2.0,40,0.00,,,0.00,18,Wunderground v.1.15,2013-09-24 22:26:00,
2013-09-24 18:27:00,69.6,44.2,30.01,WNW,285,1.0,2.0,40,0.00,,,0.00,16,Wunderground v.1.15,2013-09-24 22:27:00,
2013-09-24 18:32:00,69.4,44.0,30.01,NW,316,1.0,2.0,40,0.00,,,0.00,18,Wunderground v.1.15,2013-09-24 22:32:00,
2013-09-24 18:33:00,69.4,44.0,30.01,NW,313,1.0,2.0,40,0.00,,,0.00,16,Wunderground v.1.15,2013-09-24 22:33:00,
2013-09-24 18:35:00,69.4,44.0,30.01,NW,304,1.0,2.0,40,0.00,,,0.00,14,Wunderground v.1.15,2013-09-24 22:35:00,
2013-09-24 18:39:00,69.4,44.7,30.01,NNW,333,1.0,2.0,41,0.00,,,0.00,12,Wunderground v.1.15,2013-09-24 22:39:00,
2013-09-24 18:40:00,69.4,44.0,30.01,WNW,294,1.0,1.0,40,0.00,,,0.00,12,Wunderground v.1.15,2013-09-24 22:40:00,
2013-09-24 18:41:00,69.4,44.7,30.01,WNW,294,1.0,1.0,41,0.00,,,0.00,12,Wunderground v.1.15,2013-09-24 22:41:00,
2013-09-24 18:43:00,69.2,44.5,30.01,WNW,294,1.0,1.0,41,0.00,,,0.00,11,Wunderground v.1.15,2013-09-24 22:43:00,
2013-09-24 18:44:00,69.2,43.8,30.01,NW,313,1.0,1.0,40,0.00,,,0.00,11,Wunderground v.1.15,2013-09-24 22:44:00,
2013-09-24 18:48:00,68.9,44.2,30.01,ENE,57,1.0,1.0,41,0.00,,,0.00,9,Wunderground v.1.15,2013-09-24 22:48:00,
2013-09-24 18:52:00,68.5,43.9,30.02,WSW,252,1.0,2.0,41,0.00,,,0.00,7,Wunderground v.1.15,2013-09-24 22:52:00,
2013-09-24 18:54:00,68.2,43.6,30.02,WNW,288,1.0,2.0,41,0.00,,,0.00,5,Wunderground v.1.15,2013-09-24 22:54:00,
2013-09-24 18:55:00,68.0,44.0,30.02,WNW,288,1.0,2.0,42,0.00,,,0.00,5,Wunderground v.1.15,2013-09-24 22:55:00,
2013-09-24 18:58:00,67.8,43.9,30.02,WNW,288,1.0,2.0,42,0.00,,,0.00,5,Wunderground v.1.15,2013-09-24 22:58:00,
2013-09-24 19:00:00,67.6,44.3,30.01,WNW,288,1.0,1.0,43,0.00,,,0.00,0,Wunderground v.1.15,2013-09-24 23:00:00,
2013-09-24 19:01:00,67.5,44.2,30.02,WNW,288,1.0,1.0,43,0.00,,,0.00,0,Wunderground v.1.15,2013-09-24 23:01:00,
2013-09-24 19:02:00,67.4,44.1,30.02,WNW,288,1.0,1.0,43,0.00,,,0.00,0,Wunderground v.1.15,2013-09-24 23:02:00,
2013-09-24 19:05:00,67.0,44.4,30.02,WNW,300,1.0,2.0,44,0.00,,,0.00,0,Wunderground v.1.15,2013-09-24 23:05:00,
2013-09-24 19:06:00,66.8,44.8,30.02,NW,316,1.0,2.0,45,0.00,,,0.00,0,Wunderground v.1.15,2013-09-24 23:06:00,
2013-09-24 19:08:00,66.7,44.7,30.02,NW,304,1.0,2.0,45,0.00,,,0.00,0,Wunderground v.1.15,2013-09-24 23:08:00,
2013-09-24 19:12:00,66.3,44.9,30.02,NW,322,1.0,1.0,46,0.00,,,0.00,0,Wunderground v.1.15,2013-09-24 23:12:00,
2013-09-24 19:13:00,66.3,44.9,30.02,NW,322,1.0,1.0,46,0.00,,,0.00,0,Wunderground v.1.15,2013-09-24 23:13:00,
2013-09-24 19:14:00,66.2,44.8,30.01,NW,322,1.0,1.0,46,0.00,,,0.00,0,Wunderground v.1.15,2013-09-24 23:14:00,
2013-09-24 19:17:00,65.9,44.5,30.02,NW,322,1.0,1.0,46,0.00,,,0.00,0,Wunderground v.1.15,2013-09-24 23:17:00,
2013-09-24 19:21:00,65.5,44.7,30.02,WNW,295,1.0,1.0,47,0.00,,,0.00,0,Wunderground v.1.15,2013-09-24 23:21:00,
2013-09-24 19:23:00,65.3,44.0,30.02,West,265,1.0,1.0,46,0.00,,,0.00,0,Wunderground v.1.15,2013-09-24 23:23:00,
2013-09-24 19:25:00,65.1,43.8,30.02,NW,319,1.0,1.0,46,0.00,,,0.00,0,Wunderground v.1.15,2013-09-24 23:25:00,
2013-09-24 19:26:00,65.0,43.1,30.02,West,271,1.0,1.0,45,0.00,,,0.00,0,Wunderground v.1.15,2013-09-24 23:26:00,
2013-09-24 19:29:00,64.9,43.6,30.02,West,263,1.0,2.0,46,0.00,,,0.00,0,Wunderground v.1.15,2013-09-24 23:29:00,
2013-09-24 19:32:00,64.8,43.5,30.02,WNW,302,1.0,1.0,46,0.00,,,0.00,0,Wunderground v.1.15,2013-09-24 23:32:00,
2013-09-24 19:33:00,64.7,43.4,30.02,WNW,302,1.0,1.0,46,0.00,,,0.00,0,Wunderground v.1.15,2013-09-24 23:33:00,
2013-09-24 19:37:00,64.4,44.3,30.02,WNW,302,1.0,1.0,48,0.00,,,0.00,0,Wunderground v.1.15,2013-09-24 23:37:00,
2013-09-24 19:39:00,64.2,44.6,30.02,WNW,302,1.0,1.0,49,0.00,,,0.00,0,Wunderground v.1.15,2013-09-24 23:39:00,
2013-09-24 19:44:00,63.6,44.1,30.03,NW,304,1.0,2.0,49,0.00,,,0.00,0,Wunderground v.1.15,2013-09-24 23:44:00,
2013-09-24 19:46:00,63.4,44.4,30.03,NW,304,1.0,2.0,50,0.00,,,0.00,0,Wunderground v.1.15,2013-09-24 23:46:00,
2013-09-24 19:49:00,63.1,44.2,30.03,NNW,344,1.0,2.0,50,0.00,,,0.00,0,Wunderground v.1.15,2013-09-24 23:49:00,
2013-09-24 19:50:00,63.0,43.5,30.03,NNW,344,1.0,1.0,49,0.00,,,0.00,0,Wunderground v.1.15,2013-09-24 23:50:00,
2013-09-24 19:52:00,62.9,43.4,30.03,WNW,296,1.0,1.0,49,0.00,,,0.00,0,Wunderground v.1.15,2013-09-24 23:52:00,
2013-09-24 19:54:00,62.9,42.9,30.03,WNW,300,1.0,1.0,48,0.00,,,0.00,0,Wunderground v.1.15,2013-09-24 23:54:00,
2013-09-24 19:58:00,62.7,43.8,30.03,WNW,298,1.0,2.0,50,0.00,,,0.00,0,Wunderground v.1.15,2013-09-24 23:58:00,
2013-09-24 20:01:00,62.4,44.0,30.03,NW,317,1.0,1.0,51,0.00,,,0.00,0,Wunderground v.1.15,2013-09-25 00:01:00,
2013-09-24 20:02:00,62.3,43.9,30.03,NW,317,1.0,1.0,51,0.00,,,0.00,0,Wunderground v.1.15,2013-09-25 00:02:00,
2013-09-24 20:05:00,62.1,43.7,30.03,WNW,290,1.0,2.0,51,0.00,,,0.00,0,Wunderground v.1.15,2013-09-25 00:05:00,
2013-09-24 20:07:00,61.9,43.6,30.03,NW,305,1.0,2.0,51,0.00,,,0.00,0,Wunderground v.1.15,2013-09-25 00:07:00,
2013-09-24 20:08:00,61.8,43.5,30.03,NW,306,1.0,2.0,51,0.00,,,0.00,0,Wunderground v.1.15,2013-09-25 00:08:00,
2013-09-24 20:13:00,61.3,43.5,30.03,NW,312,1.0,2.0,52,0.00,,,0.00,0,Wunderground v.1.15,2013-09-25 00:13:00,
2013-09-24 20:14:00,61.3,43.5,30.04,NW,317,1.0,2.0,52,0.00,,,0.00,0,Wunderground v.1.15,2013-09-25 00:14:00,
2013-09-24 20:16:00,61.2,43.4,30.04,NW,307,1.0,2.0,52,0.00,,,0.00,0,Wunderground v.1.15,2013-09-25 00:16:00,
2013-09-24 20:18:00,61.1,43.3,30.03,NW,310,1.0,2.0,52,0.00,,,0.00,0,Wunderground v.1.15,2013-09-25 00:18:00,
2013-09-24 20:20:00,61.0,43.2,30.04,NW,310,1.0,1.0,52,0.00,,,0.00,0,Wunderground v.1.15,2013-09-25 00:20:00,
2013-09-24 20:21:00,61.0,43.7,30.04,NW,311,1.0,2.0,53,0.00,,,0.00,0,Wunderground v.1.15,2013-09-25 00:21:00,
2013-09-24 20:22:00,60.9,43.1,30.04,NNW,330,1.0,2.0,52,0.00,,,0.00,0,Wunderground v.1.15,2013-09-25 00:22:00,
2013-09-24 20:24:00,60.9,43.6,30.04,NNW,330,1.0,2.0,53,0.00,,,0.00,0,Wunderground v.1.15,2013-09-25 00:24:00,
2013-09-24 20:26:00,60.8,43.1,30.04,NNW,330,1.0,2.0,52,0.00,,,0.00,0,Wunderground v.1.15,2013-09-25 00:26:00,
2013-09-24 20:28:00,60.8,43.1,30.04,NW,320,1.0,2.0,52,0.00,,,0.00,0,Wunderground v.1.15,2013-09-25 00:28:00,
2013-09-24 20:30:00,60.8,43.6,30.04,NW,320,1.0,1.0,53,0.00,,,0.00,0,Wunderground v.1.15,2013-09-25 00:30:00,
2013-09-24 20:33:00,60.8,43.1,30.04,NW,310,0.0,1.0,52,0.00,,,0.00,0,Wunderground v.1.15,2013-09-25 00:33:00,
2013-09-24 20:37:00,60.8,43.6,30.04,NW,310,0.0,1.0,53,0.00,,,0.00,0,Wunderground v.1.15,2013-09-25 00:37:00,
2013-09-24 20:38:00,60.8,43.6,30.04,NW,310,0.0,1.0,53,0.00,,,0.00,0,Wunderground v.1.15,2013-09-25 00:38:00,
2013-09-24 20:40:00,60.8,43.1,30.04,NW,310,0.0,0.0,52,0.00,,,0.00,0,Wunderground v.1.15,2013-09-25 00:40:00,
2013-09-24 20:43:00,60.8,43.6,30.04,NW,310,0.0,1.0,53,0.00,,,0.00,0,Wunderground v.1.15,2013-09-25 00:43:00,
2013-09-24 20:45:00,60.7,44.9,30.04,South,188,0.0,1.0,56,0.00,,,0.00,0,Wunderground v.1.15,2013-09-25 00:45:00,
2013-09-24 20:46:00,60.6,45.3,30.04,South,187,0.0,1.0,57,0.00,,,0.00,0,Wunderground v.1.15,2013-09-25 00:46:00,
2013-09-24 20:47:00,60.5,45.6,30.04,South,187,0.0,1.0,58,0.00,,,0.00,0,Wunderground v.1.15,2013-09-25 00:47:00,
2013-09-24 20:52:00,60.0,46.1,30.04,South,187,1.0,1.0,60,0.00,,,0.00,0,Wunderground v.1.15,2013-09-25 00:52:00,
2013-09-24 20:53:00,59.9,46.0,30.04,South,187,1.0,1.0,60,0.00,,,0.00,0,Wunderground v.1.15,2013-09-25 00:53:00,
2013-09-24 20:55:00,59.8,45.9,30.04,South,187,0.0,1.0,60,0.00,,,0.00,0,Wunderground v.1.15,2013-09-25 00:55:00,
2013-09-24 20:56:00,59.7,45.8,30.04,South,187,0.0,1.0,60,0.00,,,0.00,0,Wunderground v.1.15,2013-09-25 00:56:00,
2013-09-24 20:59:00,59.5,45.6,30.04,South,187,0.0,1.0,60,0.00,,,0.00,0,Wunderground v.1.15,2013-09-25 00:59:00,
2013-09-24 21:01:00,59.3,45.4,30.04,South,188,0.0,0.0,60,0.00,,,0.00,0,Wunderground v.1.15,2013-09-25 01:01:00,
2013-09-24 21:02:00,59.3,45.8,30.04,South,187,0.0,0.0,61,0.00,,,0.00,0,Wunderground v.1.15,2013-09-25 01:02:00,
2013-09-24 21:03:00,59.2,45.8,30.05,South,188,0.0,1.0,61,0.00,,,0.00,0,Wunderground v.1.15,2013-09-25 01:03:00,
2013-09-24 21:06:00,59.0,45.6,30.05,South,188,0.0,1.0,61,0.00,,,0.00,0,Wunderground v.1.15,2013-09-25 01:06:00,
2013-09-24 21:07:00,58.9,45.5,30.05,WNW,287,0.0,1.0,61,0.00,,,0.00,0,Wunderground v.1.15,2013-09-25 01:07:00,
2013-09-24 21:09:00,58.8,44.5,30.05,WNW,301,1.0,1.0,59,0.00,,,0.00,0,Wunderground v.1.15,2013-09-25 01:09:00,
2013-09-24 21:12:00,58.7,44.4,30.05,WNW,301,1.0,1.0,59,0.00,,,0.00,0,Wunderground v.1.15,2013-09-25 01:12:00,
2013-09-24 21:13:00,58.7,44.4,30.05,WNW,301,1.0,1.0,59,0.00,,,0.00,0,Wunderground v.1.15,2013-09-25 01:13:00,
2013-09-24 21:15:00,58.6,44.3,30.05,WNW,301,1.0,1.0,59,0.00,,,0.00,0,Wunderground v.1.15,2013-09-25 01:15:00,
2013-09-24 21:20:00,58.6,44.8,30.05,WNW,301,0.0,0.0,60,0.00,,,0.00,0,Wunderground v.1.15,2013-09-25 01:20:00,
2013-09-24 21:21:00,58.5,44.7,30.05,WNW,301,0.0,0.0,60,0.00,,,0.00,0,Wunderground v.1.15,2013-09-25 01:21:00,
2013-09-24 21:23:00,58.5,45.5,30.05,WNW,296,0.0,1.0,62,0.00,,,0.00,0,Wunderground v.1.15,2013-09-25 01:23:00,
2013-09-24 21:26:00,58.5,45.9,30.05,WNW,296,0.0,1.0,63,0.00,,,0.00,0,Wunderground v.1.15,2013-09-25 01:26:00,
2013-09-24 21:27:00,58.5,46.4,30.05,WNW,296,0.0,1.0,64,0.00,,,0.00,0,Wunderground v.1.15,2013-09-25 01:27:00,
2013-09-24 21:29:00,58.4,46.3,30.05,WNW,296,0.0,1.0,64,0.00,,,0.00,0,Wunderground v.1.15,2013-09-25 01:29:00,
2013-09-24 21:30:00,58.4,46.3,30.05,WNW,296,0.0,0.0,64,0.00,,,0.00,0,Wunderground v.1.15,2013-09-25 01:30:00,
2013-09-24 21:33:00,58.3,46.6,30.05,WNW,296,0.0,1.0,65,0.00,,,0.00,0,Wunderground v.1.15,2013-09-25 01:33:00,
2013-09-24 21:35:00,58.2,46.9,30.04,South,191,0.0,4.0,66,0.00,,,0.00,0,Wunderground v.1.15,2013-09-25 01:35:00,
2013-09-24 21:37:00,58.1,47.2,30.04,SSW,207,1.0,4.0,67,0.00,,,0.00,0,Wunderground v.1.15,2013-09-25 01:37:00,
2013-09-24 21:39:00,58.0,47.1,30.04,SSW,211,2.0,5.0,67,0.00,,,0.00,0,Wunderground v.1.15,2013-09-25 01:39:00,
2013-09-24 21:41:00,57.9,47.4,30.04,South,191,2.0,5.0,68,0.00,,,0.00,0,Wunderground v.1.15,2013-09-25 01:41:00,
2013-09-24 21:44:00,57.7,47.2,30.04,SSW,208,3.0,5.0,68,0.00,,,0.00,0,Wunderground v.1.15,2013-09-25 01:44:00,
2013-09-24 21:46:00,57.7,47.2,30.04,SSW,193,3.0,5.0,68,0.00,,,0.00,0,Wunderground v.1.15,2013-09-25 01:46:00,
2013-09-24 21:48:00,57.6,47.1,30.05,SSW,193,2.0,5.0,68,0.00,,,0.00,0,Wunderground v.1.15,2013-09-25 01:48:00,
2013-09-24 21:49:00,57.6,47.1,30.05,SSW,193,2.0,5.0,68,0.00,,,0.00,0,Wunderground v.1.15,2013-09-25 01:49:00,
2013-09-24 21:50:00,57.5,47.0,30.05,SSW,193,2.0,2.0,68,0.00,,,0.00,0,Wunderground v.1.15,2013-09-25 01:50:00,
2013-09-24 21:51:00,57.4,47.3,30.05,SSW,193,1.0,2.0,69,0.00,,,0.00,0,Wunderground v.1.15,2013-09-25 01:51:00,
2013-09-24 21:54:00,57.2,47.1,30.05,SSW,193,1.0,2.0,69,0.00,,,0.00,0,Wunderground v.1.15,2013-09-25 01:54:00,
2013-09-24 21:56:00,56.9,47.2,30.05,SSW,193,1.0,2.0,70,0.00,,,0.00,0,Wunderground v.1.15,2013-09-25 01:56:00,
2013-09-24 21:57:00,56.9,47.2,30.05,SSW,193,1.0,2.0,70,0.00,,,0.00,0,Wunderground v.1.15,2013-09-25 01:57:00,
2013-09-24 22:00:00,56.6,46.9,30.05,SSW,193,1.0,1.0,70,0.00,,,0.00,0,Wunderground v.1.15,2013-09-25 02:00:00,
2013-09-24 22:01:00,56.6,46.9,30.05,SSW,193,1.0,1.0,70,0.00,,,0.00,0,Wunderground v.1.15,2013-09-25 02:01:00,
2013-09-24 22:04:00,56.4,47.1,30.05,SSW,193,1.0,1.0,71,0.00,,,0.00,0,Wunderground v.1.15,2013-09-25 02:04:00,
2013-09-24 22:05:00,56.3,47.0,30.05,SSW,193,1.0,1.0,71,0.00,,,0.00,0,Wunderground v.1.15,2013-09-25 02:05:00,
2013-09-24 22:06:00,56.3,47.0,30.05,SSW,193,0.0,1.0,71,0.00,,,0.00,0,Wunderground v.1.15,2013-09-25 02:06:00,
2013-09-24 22:10:00,56.0,47.1,30.05,SSW,193,0.0,0.0,72,0.00,,,0.00,0,Wunderground v.1.15,2013-09-25 02:10:00,
2013-09-24 22:13:00,55.7,46.4,30.05,West,261,0.0,1.0,71,0.00,,,0.00,0,Wunderground v.1.15,2013-09-25 02:13:00,
2013-09-24 22:15:00,55.6,46.3,30.05,NW,307,0.0,2.0,71,0.00,,,0.00,0,Wunderground v.1.15,2013-09-25 02:15:00,
2013-09-24 22:16:00,55.5,46.2,30.05,NW,313,0.0,2.0,71,0.00,,,0.00,0,Wunderground v.1.15,2013-09-25 02:16:00,
2013-09-24 22:17:00,55.4,46.2,30.05,NW,325,1.0,2.0,71,0.00,,,0.00,0,Wunderground v.1.15,2013-09-25 02:17:00,
2013-09-24 22:20:00,55.3,46.4,30.05,North,350,1.0,1.0,72,0.00,,,0.00,0,Wunderground v.1.15,2013-09-25 02:20:00,
2013-09-24 22:21:00,55.3,46.4,30.05,North,350,1.0,2.0,72,0.00,,,0.00,0,Wunderground v.1.15,2013-09-25 02:21:00,
2013-09-24 22:23:00,55.3,46.4,30.05,NNW,346,1.0,2.0,72,0.00,,,0.00,0,Wunderground v.1.15,2013-09-25 02:23:00,
2013-09-24 22:24:00,55.3,46.4,30.05,NNW,347,1.0,2.0,72,0.00,,,0.00,0,Wunderground v.1.15,2013-09-25 02:24:00,
2013-09-24 22:28:00,55.4,46.2,30.05,NNW,347,1.0,2.0,71,0.00,,,0.00,0,Wunderground v.1.15,2013-09-25 02:28:00,
2013-09-24 22:32:00,55.5,45.9,30.04,NNW,347,1.0,1.0,70,0.00,,,0.00,0,Wunderground v.1.15,2013-09-25 02:32:00,
2013-09-24 22:34:00,55.5,45.5,30.04,NNW,347,1.0,1.0,69,0.00,,,0.00,0,Wunderground v.1.15,2013-09-25 02:34:00,
2013-09-24 22:35:00,55.5,45.5,30.04,NNW,347,1.0,1.0,69,0.00,,,0.00,0,Wunderground v.1.15,2013-09-25 02:35:00,
2013-09-24 22:36:00,55.6,45.2,30.04,NNW,347,1.0,1.0,68,0.00,,,0.00,0,Wunderground v.1.15,2013-09-25 02:36:00,
2013-09-24 22:38:00,55.6,44.8,30.04,NNW,347,0.0,1.0,67,0.00,,,0.00,0,Wunderground v.1.15,2013-09-25 02:38:00,
2013-09-24 22:41:00,55.6,45.2,30.04,NNW,347,0.0,0.0,68,0.00,,,0.00,0,Wunderground v.1.15,2013-09-25 02:41:00,
2013-09-24 22:43:00,55.6,46.0,30.04,SE,134,0.0,2.0,70,0.00,,,0.00,0,Wunderground v.1.15,2013-09-25 02:43:00,
2013-09-24 22:45:00,55.5,46.6,30.04,SE,134,0.0,2.0,72,0.00,,,0.00,0,Wunderground v.1.15,2013-09-25 02:45:00,
2013-09-24 22:46:00,55.4,46.5,30.04,SE,134,1.0,2.0,72,0.00,,,0.00,0,Wunderground v.1.15,2013-09-25 02:46:00,
2013-09-24 22:49:00,55.1,46.6,30.04,SE,134,1.0,2.0,73,0.00,,,0.00,0,Wunderground v.1.15,2013-09-25 02:49:00,
2013-09-24 22:50:00,55.0,46.5,30.04,SE,134,1.0,1.0,73,0.00,,,0.00,0,Wunderground v.1.15,2013-09-25 02:50:00,
2013-09-24 22:53:00,54.5,46.7,30.04,SSE,164,1.0,2.0,75,0.00,,,0.00,0,Wunderground v.1.15,2013-09-25 02:53:00,
2013-09-24 22:55:00,54.3,46.9,30.04,SSE,164,1.0,2.0,76,0.00,,,0.00,0,Wunderground v.1.15,2013-09-25 02:55:00,
2013-09-24 22:57:00,54.2,46.8,30.04,SSE,164,1.0,2.0,76,0.00,,,0.00,0,Wunderground v.1.15,2013-09-25 02:57:00,
2013-09-24 23:00:00,53.9,46.9,30.04,SSE,164,1.0,1.0,77,0.00,,,0.00,0,Wunderground v.1.15,2013-09-25 03:00:00,
2013-09-24 23:01:00,53.8,46.8,30.04,SSE,164,1.0,1.0,77,0.00,,,0.00,0,Wunderground v.1.15,2013-09-25 03:01:00,
2013-09-24 23:05:00,53.5,46.8,30.05,SSE,164,1.0,1.0,78,0.00,,,0.00,0,Wunderground v.1.15,2013-09-25 03:05:00,
2013-09-24 23:06:00,53.5,46.8,30.05,SSE,164,1.0,1.0,78,0.00,,,0.00,0,Wunderground v.1.15,2013-09-25 03:06:00,
2013-09-24 23:08:00,53.3,46.6,30.05,SSE,164,1.0,1.0,78,0.00,,,0.00,0,Wunderground v.1.15,2013-09-25 03:08:00,
2013-09-24 23:11:00,53.0,46.7,30.05,SSE,164,0.0,1.0,79,0.00,,,0.00,0,Wunderground v.1.15,2013-09-25 03:11:00,
2013-09-24 23:12:00,53.0,46.7,30.04,SSE,164,0.0,1.0,79,0.00,,,0.00,0,Wunderground v.1.15,2013-09-25 03:12:00,
2013-09-24 23:14:00,52.8,46.5,30.04,SSE,164,0.0,1.0,79,0.00,,,0.00,0,Wunderground v.1.15,2013-09-25 03:14:00,
2013-09-24 23:17:00,52.7,46.4,30.04,SSE,164,0.0,1.0,79,0.00,,,0.00,0,Wunderground v.1.15,2013-09-25 03:17:00,
2013-09-24 23:20:00,52.6,46.6,30.04,SSE,164,0.0,1.0,80,0.00,,,0.00,0,Wunderground v.1.15,2013-09-25 03:20:00,
2013-09-24 23:21:00,52.6,46.6,30.04,SSE,164,0.0,1.0,80,0.00,,,0.00,0,Wunderground v.1.15,2013-09-25 03:21:00,
2013-09-24 23:25:00,52.6,46.9,30.05,SSE,164,0.0,1.0,81,0.00,,,0.00,0,Wunderground v.1.15,2013-09-25 03:25:00,
2013-09-24 23:26:00,52.6,46.9,30.05,SSE,164,0.0,1.0,81,0.00,,,0.00,0,Wunderground v.1.15,2013-09-25 03:26:00,
2013-09-24 23:27:00,52.6,46.9,30.05,SSE,164,0.0,1.0,81,0.00,,,0.00,0,Wunderground v.1.15,2013-09-25 03:27:00,
2013-09-24 23:30:00,52.5,47.2,30.05,SSE,164,0.0,0.0,82,0.00,,,0.00,0,Wunderground v.1.15,2013-09-25 03:30:00,
2013-09-24 23:31:00,52.6,47.3,30.05,SSE,164,0.0,0.0,82,0.00,,,0.00,0,Wunderground v.1.15,2013-09-25 03:31:00,
2013-09-24 23:33:00,52.5,47.2,30.05,SSE,164,0.0,0.0,82,0.00,,,0.00,0,Wunderground v.1.15,2013-09-25 03:33:00,
2013-09-24 23:37:00,52.4,47.1,30.05,SSE,164,0.0,1.0,82,0.00,,,0.00,0,Wunderground v.1.15,2013-09-25 03:37:00,
2013-09-24 23:38:00,52.4,47.1,30.05,SSE,164,0.0,1.0,82,0.00,,,0.00,0,Wunderground v.1.15,2013-09-25 03:38:00,
2013-09-24 23:40:00,52.3,47.0,30.05,SSE,165,0.0,1.0,82,0.00,,,0.00,0,Wunderground v.1.15,2013-09-25 03:40:00,
2013-09-24 23:42:00,52.4,47.1,30.05,South,182,0.0,1.0,82,0.00,,,0.00,0,Wunderground v.1.15,2013-09-25 03:42:00,
2013-09-24 23:44:00,52.4,47.1,30.04,South,191,1.0,4.0,82,0.00,,,0.00,0,Wunderground v.1.15,2013-09-25 03:44:00,
2013-09-24 23:46:00,52.5,47.2,30.04,SSW,198,1.0,4.0,82,0.00,,,0.00,0,Wunderground v.1.15,2013-09-25 03:46:00,
2013-09-24 23:48:00,52.5,46.8,30.04,SSW,198,1.0,4.0,81,0.00,,,0.00,0,Wunderground v.1.15,2013-09-25 03:48:00,
2013-09-24 23:50:00,52.6,46.9,30.04,SSW,198,1.0,1.0,81,0.00,,,0.00,0,Wunderground v.1.15,2013-09-25 03:50:00,
2013-09-24 23:53:00,52.6,46.9,30.04,SSW,198,1.0,1.0,81,0.00,,,0.00,0,Wunderground v.1.15,2013-09-25 03:53:00,
2013-09-24 23:56:00,52.5,46.8,30.04,SSW,198,0.0,1.0,81,0.00,,,0.00,0,Wunderground v.1.15,2013-09-25 03:56:00,
2013-09-24 23:57:00,52.5,46.8,30.03,SSW,198,0.0,1.0,81,0.00,,,0.00,0,Wunderground v.1.15,2013-09-25 03:57:00,